| time (UTC) | temp F | wind direction | speed MPH | gust MPH | rain 1hr in | rain 24hr in | rain mn in | humidity % | barometer mb |
| 20260831234140 | 77 | 300 | 0.0 | 0.0 | 0.00 | 0.15 | 0.15 | 82 | 1021.3 |
| 20260831234038 | 77 | 300 | 0.0 | 0.0 | 0.00 | 0.15 | 0.15 | 82 | 1021.2 |
| 20260831233939 | 77 | 301 | 0.0 | 0.0 | 0.00 | 0.15 | 0.15 | 82 | 1021.2 |
| 20260831233837 | 77 | 301 | 0.0 | 0.0 | 0.00 | 0.15 | 0.15 | 82 | 1021.2 |
| 20260831233733 | 77 | 301 | 0.0 | 0.0 | 0.00 | 0.15 | 0.15 | 82 | 1021.2 |
| 20260831233635 | 77 | 301 | 0.0 | 0.0 | 0.00 | 0.15 | 0.15 | 82 | 1021.2 |
| 20260831233532 | 77 | 301 | 0.0 | 0.0 | 0.00 | 0.15 | 0.15 | 82 | 1021.2 |
| 20260831233433 | 77 | 302 | 0.0 | 0.0 | 0.00 | 0.15 | 0.15 | 82 | 1021.2 |
| 20260831233330 | 77 | 302 | 0.0 | 0.0 | 0.00 | 0.15 | 0.15 | 82 | 1021.2 |
| 20260831233229 | 77 | 302 | 0.0 | 0.0 | 0.00 | 0.15 | 0.15 | 82 | 1021.2 |
| 20260831233129 | 78 | 302 | 0.0 | 0.0 | 0.00 | 0.15 | 0.15 | 82 | 1021.3 |
| 20260831233026 | 78 | 302 | 0.0 | 0.0 | 0.00 | 0.15 | 0.15 | 82 | 1021.2 |
| 20260831232927 | 78 | 302 | 0.0 | 0.0 | 0.00 | 0.15 | 0.15 | 82 | 1021.2 |
| 20260831232824 | 78 | 302 | 0.0 | 0.0 | 0.00 | 0.15 | 0.15 | 82 | 1021.2 |
| 20260831232723 | 78 | 302 | 0.0 | 0.0 | 0.00 | 0.15 | 0.15 | 83 | 1021.3 |
| 20260831232622 | 78 | 302 | 0.0 | 0.0 | 0.00 | 0.15 | 0.15 | 83 | 1021.2 |
| 20260831232522 | 78 | 302 | 0.0 | 0.0 | 0.00 | 0.15 | 0.15 | 82 | 1021.3 |
| 20260831232423 | 78 | 302 | 0.0 | 0.0 | 0.00 | 0.15 | 0.15 | 82 | 1021.3 |
| 20260831232323 | 78 | 302 | 0.0 | 0.0 | 0.00 | 0.15 | 0.15 | 82 | 1021.3 |
| 20260831232220 | 78 | 303 | 0.0 | 0.0 | 0.00 | 0.15 | 0.15 | 82 | 1021.3 |
| 20260831232119 | 78 | 303 | 0.0 | 0.0 | 0.00 | 0.15 | 0.15 | 82 | 1021.4 |
| 20260831232019 | 78 | 303 | 0.0 | 0.0 | 0.00 | 0.15 | 0.15 | 82 | 1021.3 |
| 20260831231918 | 78 | 303 | 0.0 | 0.0 | 0.00 | 0.15 | 0.15 | 82 | 1021.4 |
| 20260831231815 | 78 | 303 | 0.0 | 0.0 | 0.00 | 0.15 | 0.15 | 82 | 1021.3 |
| 20260831231715 | 78 | 303 | 0.0 | 0.0 | 0.00 | 0.15 | 0.15 | 82 | 1021.4 |
| 20260831231611 | 78 | 303 | 0.0 | 0.0 | 0.00 | 0.15 | 0.15 | 82 | 1021.4 |
| 20260831231509 | 78 | 302 | 0.0 | 0.0 | 0.00 | 0.15 | 0.15 | 82 | 1021.4 |
| 20260831231408 | 78 | 298 | 0.0 | 0.0 | 0.00 | 0.15 | 0.15 | 82 | 1021.4 |
| 20260831231309 | 78 | 294 | 0.0 | 0.0 | 0.00 | 0.15 | 0.15 | 81 | 1021.4 |
| 20260831231209 | 78 | 295 | 0.0 | 0.0 | 0.00 | 0.15 | 0.15 | 82 | 1021.4 |
| 20260831231107 | 78 | 294 | 0.0 | 0.0 | 0.00 | 0.15 | 0.15 | 81 | 1021.4 |
| 20260831231005 | 79 | 294 | 0.0 | 0.0 | 0.00 | 0.15 | 0.15 | 81 | 1021.4 |
| 20260831230907 | 79 | 294 | 0.0 | 0.0 | 0.00 | 0.15 | 0.15 | 82 | 1021.4 |
| 20260831230806 | 79 | 294 | 0.0 | 0.0 | 0.00 | 0.15 | 0.15 | 82 | 1021.4 |
| 20260831230706 | 79 | 293 | 0.0 | 0.0 | 0.00 | 0.15 | 0.15 | 82 | 1021.4 |
| 20260831230605 | 79 | 291 | 0.0 | 0.0 | 0.00 | 0.15 | 0.15 | 82 | 1021.5 |
| 20260831230507 | 79 | 286 | 0.0 | 0.0 | 0.00 | 0.15 | 0.15 | 82 | 1021.5 |
| 20260831230406 | 79 | 269 | 0.0 | 0.0 | 0.00 | 0.15 | 0.15 | 82 | 1021.4 |
| 20260831230307 | 79 | 296 | 0.0 | 0.0 | 0.00 | 0.15 | 0.15 | 82 | 1021.4 |
| 20260831230205 | 79 | 300 | 0.0 | 0.0 | 0.00 | 0.15 | 0.15 | 82 | 1021.4 |
| 20260831230105 | 79 | 300 | 0.0 | 0.0 | 0.00 | 0.15 | 0.15 | 81 | 1021.4 |
| 20260831230003 | 79 | 303 | 0.0 | 0.0 | 0.00 | 0.15 | 0.15 | 81 | 1021.4 |
| 20260831225902 | 79 | 304 | 0.0 | 0.0 | 0.00 | 0.15 | 0.15 | 81 | 1021.5 |
| 20260831225800 | 79 | 305 | 0.0 | 0.0 | 0.00 | 0.15 | 0.15 | 81 | 1021.6 |
| 20260831225659 | 79 | 305 | 0.0 | 0.0 | 0.00 | 0.15 | 0.15 | 80 | 1021.4 |
| 20260831225601 | 79 | 305 | 0.0 | 0.0 | 0.00 | 0.15 | 0.15 | 80 | 1021.6 |
| 20260831225501 | 79 | 305 | 0.0 | 0.0 | 0.00 | 0.15 | 0.15 | 80 | 1021.5 |
| 20260831225356 | 80 | 305 | 0.0 | 0.0 | 0.00 | 0.15 | 0.15 | 80 | 1021.6 |
| 20260831225254 | 80 | 305 | 0.0 | 0.0 | 0.00 | 0.15 | 0.15 | 80 | 1021.5 |
| 20260831225154 | 80 | 305 | 0.0 | 0.0 | 0.00 | 0.15 | 0.15 | 81 | 1021.5 |
| 20260831225054 | 80 | 305 | 0.0 | 0.0 | 0.00 | 0.15 | 0.15 | 81 | 1021.5 |
| 20260831224955 | 80 | 305 | 0.0 | 0.0 | 0.00 | 0.15 | 0.15 | 80 | 1021.5 |
| 20260831224853 | 80 | 305 | 0.0 | 0.0 | 0.00 | 0.15 | 0.15 | 81 | 1021.5 |
| 20260831224752 | 80 | 305 | 0.0 | 0.0 | 0.00 | 0.15 | 0.15 | 80 | 1021.5 |
| 20260831224653 | 80 | 305 | 0.0 | 0.0 | 0.00 | 0.15 | 0.15 | 80 | 1021.4 |
| 20260831224550 | 80 | 305 | 0.0 | 0.0 | 0.00 | 0.15 | 0.15 | 80 | 1021.4 |
| 20260831224449 | 80 | 305 | 0.0 | 0.0 | 0.00 | 0.15 | 0.15 | 80 | 1021.5 |
| 20260831224344 | 80 | 305 | 0.0 | 0.0 | 0.00 | 0.15 | 0.15 | 80 | 1021.4 |
| 20260831224242 | 80 | 305 | 0.0 | 0.0 | 0.00 | 0.15 | 0.15 | 80 | 1021.4 |
| 20260831224141 | 81 | 305 | 0.0 | 0.0 | 0.00 | 0.15 | 0.15 | 79 | 1021.4 |
| 20260831224041 | 81 | 305 | 0.0 | 0.0 | 0.00 | 0.15 | 0.15 | 80 | 1021.4 |
| 20260831223938 | 81 | 305 | 0.0 | 0.0 | 0.00 | 0.15 | 0.15 | 79 | 1021.4 |
| 20260831223833 | 81 | 305 | 0.0 | 0.0 | 0.00 | 0.15 | 0.15 | 80 | 1021.4 |
| 20260831223733 | 81 | 305 | 0.0 | 0.0 | 0.00 | 0.15 | 0.15 | 80 | 1021.4 |
| 20260831223632 | 81 | 305 | 0.0 | 0.0 | 0.00 | 0.15 | 0.15 | 80 | 1021.5 |
| 20260831223532 | 81 | 305 | 0.0 | 0.0 | 0.00 | 0.15 | 0.15 | 79 | 1021.5 |
| 20260831223433 | 81 | 305 | 0.0 | 0.0 | 0.00 | 0.15 | 0.15 | 79 | 1021.4 |
| 20260831223333 | 81 | 305 | 0.0 | 0.0 | 0.00 | 0.15 | 0.15 | 78 | 1021.5 |
| 20260831223230 | 81 | 305 | 0.0 | 0.0 | 0.00 | 0.15 | 0.15 | 79 | 1021.4 |
| 20260831223133 | 81 | 305 | 0.0 | 0.0 | 0.00 | 0.15 | 0.15 | 79 | 1021.4 |
| 20260831223027 | 82 | 305 | 0.0 | 0.0 | 0.00 | 0.15 | 0.15 | 79 | 1021.4 |
| 20260831222927 | 82 | 305 | 0.0 | 0.0 | 0.00 | 0.15 | 0.15 | 78 | 1021.4 |
| 20260831222822 | 82 | 305 | 0.0 | 0.0 | 0.00 | 0.15 | 0.15 | 77 | 1021.4 |
| 20260831222720 | 82 | 305 | 0.0 | 0.0 | 0.00 | 0.15 | 0.15 | 77 | 1021.4 |
| 20260831222620 | 82 | 305 | 0.0 | 0.0 | 0.00 | 0.15 | 0.15 | 77 | 1021.4 |
| 20260831222520 | 82 | 305 | 0.0 | 0.0 | 0.00 | 0.15 | 0.15 | 77 | 1021.4 |
| 20260831222416 | 82 | 305 | 0.0 | 0.0 | 0.00 | 0.15 | 0.15 | 77 | 1021.4 |
| 20260831222310 | 82 | 305 | 0.0 | 0.0 | 0.00 | 0.15 | 0.15 | 77 | 1021.4 |
| 20260831222210 | 82 | 305 | 0.0 | 0.0 | 0.00 | 0.15 | 0.15 | 77 | 1021.4 |
| 20260831222111 | 82 | 305 | 0.0 | 0.0 | 0.00 | 0.15 | 0.15 | 77 | 1021.4 |
| 20260831222010 | 82 | 305 | 0.0 | 0.0 | 0.00 | 0.15 | 0.15 | 77 | 1021.5 |
| 20260831221911 | 82 | 305 | 0.0 | 0.0 | 0.00 | 0.15 | 0.15 | 77 | 1021.5 |
| 20260831221808 | 82 | 305 | 0.0 | 0.0 | 0.00 | 0.15 | 0.15 | 76 | 1021.4 |
| 20260831221707 | 82 | 305 | 0.0 | 0.0 | 0.00 | 0.15 | 0.15 | 76 | 1021.4 |
| 20260831221606 | 82 | 305 | 0.0 | 0.0 | 0.00 | 0.15 | 0.15 | 76 | 1021.5 |
| 20260831221507 | 82 | 305 | 0.0 | 0.0 | 0.00 | 0.15 | 0.15 | 76 | 1021.5 |
| 20260831221405 | 82 | 305 | 0.0 | 0.0 | 0.00 | 0.15 | 0.15 | 76 | 1021.5 |
| 20260831221259 | 82 | 305 | 0.0 | 0.0 | 0.00 | 0.15 | 0.15 | 75 | 1021.5 |
| 20260831221159 | 83 | 305 | 0.0 | 0.0 | 0.00 | 0.15 | 0.15 | 76 | 1021.5 |
| 20260831221059 | 83 | 305 | 0.0 | 0.0 | 0.00 | 0.15 | 0.15 | 76 | 1021.4 |
| 20260831220958 | 83 | 305 | 0.0 | 0.0 | 0.00 | 0.15 | 0.15 | 76 | 1021.5 |
| 20260831220855 | 83 | 305 | 0.0 | 0.0 | 0.00 | 0.15 | 0.15 | 76 | 1021.5 |
| 20260831220750 | 83 | 305 | 0.0 | 0.0 | 0.00 | 0.15 | 0.15 | 75 | 1021.5 |
| 20260831220649 | 83 | 305 | 0.0 | 0.0 | 0.00 | 0.15 | 0.15 | 75 | 1021.5 |
| 20260831220547 | 83 | 305 | 0.0 | 0.0 | 0.00 | 0.15 | 0.15 | 76 | 1021.6 |
| 20260831220447 | 83 | 305 | 0.0 | 0.0 | 0.00 | 0.15 | 0.15 | 78 | 1021.5 |
| 20260831220349 | 83 | 305 | 0.0 | 0.0 | 0.00 | 0.15 | 0.15 | 77 | 1021.6 |
| 20260831220248 | 83 | 305 | 0.0 | 0.0 | 0.00 | 0.15 | 0.15 | 76 | 1021.6 |
| 20260831220146 | 83 | 305 | 0.0 | 0.0 | 0.00 | 0.15 | 0.15 | 76 | 1021.6 |
| 20260831220048 | 83 | 305 | 0.0 | 0.0 | 0.00 | 0.15 | 0.15 | 77 | 1021.6 |
| 20260831215944 | 83 | 305 | 0.0 | 0.0 | 0.00 | 0.15 | 0.15 | 77 | 1021.5 |
| 20260831215843 | 83 | 305 | 0.0 | 0.0 | 0.00 | 0.15 | 0.15 | 78 | 1021.5 |
| 20260831215738 | 83 | 305 | 0.0 | 0.0 | 0.00 | 0.15 | 0.15 | 78 | 1021.6 |
| 20260831215637 | 83 | 305 | 0.0 | 0.0 | 0.00 | 0.15 | 0.15 | 77 | 1021.6 |
| 20260831215537 | 83 | 305 | 0.0 | 0.0 | 0.00 | 0.15 | 0.15 | 78 | 1021.6 |
| 20260831215434 | 83 | 305 | 0.0 | 0.0 | 0.00 | 0.15 | 0.15 | 79 | 1021.9 |
| 20260831215333 | 83 | 305 | 0.0 | 0.0 | 0.00 | 0.15 | 0.15 | 78 | 1021.7 |
| 20260831215227 | 83 | 305 | 0.0 | 0.0 | 0.00 | 0.15 | 0.15 | 77 | 1021.7 |
| 20260831215126 | 83 | 305 | 0.0 | 0.0 | 0.00 | 0.15 | 0.15 | 77 | 1021.9 |
| 20260831215027 | 83 | 305 | 0.0 | 0.0 | 0.00 | 0.15 | 0.15 | 78 | 1021.7 |
| 20260831214927 | 83 | 305 | 0.0 | 0.0 | 0.00 | 0.15 | 0.15 | 77 | 1021.9 |
| 20260831214826 | 83 | 305 | 0.0 | 0.0 | 0.00 | 0.15 | 0.15 | 76 | 1021.9 |
| 20260831214726 | 83 | 305 | 0.0 | 0.0 | 0.00 | 0.15 | 0.15 | 75 | 1021.9 |
| 20260831214624 | 83 | 305 | 0.0 | 0.0 | 0.00 | 0.15 | 0.15 | 74 | 1021.9 |
| 20260831214523 | 83 | 305 | 0.0 | 0.0 | 0.00 | 0.15 | 0.15 | 74 | 1021.9 |
| 20260831214422 | 83 | 305 | 0.0 | 0.0 | 0.00 | 0.15 | 0.15 | 75 | 1021.9 |
| 20260831214320 | 83 | 305 | 0.0 | 1.0 | 0.00 | 0.15 | 0.15 | 75 | 1021.9 |
| 20260831214217 | 83 | 305 | 0.0 | 1.0 | 0.00 | 0.15 | 0.15 | 76 | 1022.0 |
| 20260831214114 | 83 | 305 | 0.0 | 1.0 | 0.00 | 0.15 | 0.15 | 76 | 1022.0 |
| 20260831214015 | 82 | 305 | 0.0 | 1.0 | 0.00 | 0.15 | 0.15 | 76 | 1022.0 |
| 20260831213913 | 82 | 305 | 0.0 | 1.0 | 0.00 | 0.15 | 0.15 | 76 | 1022.0 |
| 20260831213810 | 82 | 305 | 0.0 | 1.0 | 0.00 | 0.15 | 0.15 | 75 | 1022.0 |
| 20260831213706 | 82 | 305 | 0.0 | 1.0 | 0.00 | 0.15 | 0.15 | 76 | 1022.1 |
| 20260831213607 | 82 | 305 | 0.0 | 1.0 | 0.00 | 0.15 | 0.15 | 77 | 1022.1 |
| 20260831213505 | 82 | 305 | 0.0 | 1.0 | 0.00 | 0.15 | 0.15 | 76 | 1022.0 |
| 20260831213406 | 82 | 305 | 0.0 | 3.0 | 0.00 | 0.15 | 0.15 | 78 | 1021.9 |
| 20260831213305 | 82 | 305 | 0.0 | 3.0 | 0.00 | 0.15 | 0.15 | 78 | 1021.9 |
| 20260831213207 | 82 | 305 | 0.0 | 3.0 | 0.00 | 0.15 | 0.15 | 76 | 1021.9 |
| 20260831213105 | 82 | 304 | 0.0 | 3.0 | 0.00 | 0.15 | 0.15 | 78 | 1022.0 |
| 20260831213006 | 82 | 304 | 0.0 | 3.0 | 0.00 | 0.15 | 0.15 | 77 | 1021.9 |
| 20260831212906 | 82 | 304 | 0.0 | 3.0 | 0.00 | 0.15 | 0.15 | 79 | 1021.9 |
| 20260831212806 | 82 | 304 | 0.0 | 3.0 | 0.00 | 0.15 | 0.15 | 78 | 1022.0 |
| 20260831212705 | 82 | 304 | 0.0 | 3.0 | 0.00 | 0.15 | 0.15 | 79 | 1022.0 |
| 20260831212606 | 82 | 304 | 0.0 | 3.0 | 0.00 | 0.15 | 0.15 | 78 | 1022.0 |
| 20260831212507 | 82 | 304 | 0.0 | 3.0 | 0.00 | 0.15 | 0.15 | 77 | 1021.9 |
| 20260831212406 | 82 | 314 | 0.0 | 2.0 | 0.00 | 0.15 | 0.15 | 77 | 1021.9 |
| 20260831212307 | 82 | 313 | 0.0 | 2.0 | 0.00 | 0.15 | 0.15 | 77 | 1021.9 |
| 20260831212206 | 82 | 313 | 0.0 | 2.0 | 0.00 | 0.15 | 0.15 | 76 | 1021.9 |
| 20260831212107 | 82 | 313 | 0.0 | 2.0 | 0.00 | 0.15 | 0.15 | 77 | 1021.7 |
| 20260831212004 | 82 | 313 | 0.0 | 2.0 | 0.00 | 0.15 | 0.15 | 76 | 1021.9 |
| 20260831211900 | 82 | 313 | 0.0 | 2.0 | 0.00 | 0.15 | 0.15 | 78 | 1022.0 |
| 20260831211801 | 82 | 313 | 0.0 | 2.0 | 0.00 | 0.15 | 0.15 | 78 | 1021.7 |
| 20260831211701 | 82 | 313 | 0.0 | 2.0 | 0.00 | 0.15 | 0.15 | 77 | 1021.9 |
| 20260831211601 | 82 | 313 | 0.0 | 2.0 | 0.00 | 0.15 | 0.15 | 80 | 1022.0 |
| 20260831211455 | 81 | 313 | 0.0 | 2.0 | 0.00 | 0.15 | 0.15 | 80 | 1021.9 |
| 20260831211354 | 81 | 313 | 0.0 | 3.0 | 0.00 | 0.15 | 0.15 | 79 | 1021.9 |
| 20260831211255 | 81 | 312 | 1.0 | 4.0 | 0.00 | 0.15 | 0.15 | 80 | 1021.9 |
| 20260831211154 | 81 | 313 | 1.0 | 4.0 | 0.00 | 0.15 | 0.15 | 80 | 1021.9 |
| 20260831211055 | 81 | 313 | 1.0 | 4.0 | 0.00 | 0.15 | 0.15 | 80 | 1021.9 |
| 20260831210951 | 81 | 313 | 1.0 | 4.0 | 0.00 | 0.15 | 0.15 | 80 | 1022.0 |
| 20260831210847 | 81 | 319 | 1.0 | 4.0 | 0.00 | 0.15 | 0.15 | 81 | 1022.0 |
| 20260831210748 | 81 | 319 | 1.0 | 4.0 | 0.00 | 0.15 | 0.15 | 81 | 1021.7 |
| 20260831210647 | 81 | 319 | 1.0 | 4.0 | 0.00 | 0.15 | 0.15 | 80 | 1021.9 |
| 20260831210545 | 80 | 319 | 1.0 | 4.0 | 0.00 | 0.15 | 0.15 | 79 | 1021.9 |
| 20260831210445 | 80 | 319 | 1.0 | 4.0 | 0.00 | 0.15 | 0.15 | 78 | 1021.9 |
| 20260831210343 | 80 | 322 | 1.0 | 4.0 | 0.00 | 0.15 | 0.15 | 79 | 1021.9 |
| 20260831210242 | 80 | 325 | 1.0 | 4.0 | 0.00 | 0.15 | 0.15 | 79 | 1021.9 |
| 20260831210141 | 80 | 326 | 1.0 | 4.0 | 0.00 | 0.15 | 0.15 | 82 | 1021.9 |
| 20260831210039 | 80 | 184 | 0.0 | 2.0 | 0.00 | 0.15 | 0.15 | 83 | 1022.0 |
| 20260831205933 | 80 | 184 | 0.0 | 2.0 | 0.00 | 0.15 | 0.15 | 83 | 1022.0 |
| 20260831205832 | 79 | 182 | 0.0 | 2.0 | 0.00 | 0.15 | 0.15 | 84 | 1021.9 |
| 20260831205733 | 79 | 182 | 0.0 | 2.0 | 0.00 | 0.15 | 0.15 | 83 | 1021.9 |
| 20260831205631 | 79 | 182 | 0.0 | 2.0 | 0.00 | 0.15 | 0.15 | 83 | 1021.9 |
| 20260831205533 | 79 | 182 | 0.0 | 0.0 | 0.00 | 0.15 | 0.15 | 82 | 1022.0 |
| 20260831205426 | 78 | 182 | 0.0 | 0.0 | 0.00 | 0.15 | 0.15 | 81 | 1022.0 |
| 20260831205327 | 78 | 182 | 0.0 | 0.0 | 0.00 | 0.15 | 0.15 | 82 | 1021.9 |
| 20260831205226 | 78 | 182 | 0.0 | 0.0 | 0.00 | 0.15 | 0.15 | 82 | 1021.9 |
| 20260831205124 | 78 | 180 | 0.0 | 0.0 | 0.00 | 0.15 | 0.15 | 82 | 1021.9 |
| 20260831205022 | 78 | 180 | 0.0 | 0.0 | 0.00 | 0.15 | 0.15 | 81 | 1021.9 |
| 20260831204923 | 77 | 180 | 0.0 | 0.0 | 0.00 | 0.15 | 0.15 | 82 | 1022.0 |
| 20260831204819 | 77 | 180 | 0.0 | 0.0 | 0.01 | 0.15 | 0.15 | 82 | 1021.9 |
| 20260831204719 | 77 | 180 | 0.0 | 0.0 | 0.01 | 0.15 | 0.15 | 82 | 1022.0 |
| 20260831204618 | 77 | 180 | 0.0 | 0.0 | 0.01 | 0.15 | 0.15 | 83 | 1022.0 |
| 20260831204516 | 77 | 180 | 0.0 | 0.0 | 0.01 | 0.15 | 0.15 | 85 | 1021.9 |
| 20260831204410 | 76 | 180 | 0.0 | 0.0 | 0.01 | 0.15 | 0.15 | 87 | 1021.9 |
| 20260831204311 | 76 | 180 | 0.0 | 0.0 | 0.01 | 0.15 | 0.15 | 87 | 1021.9 |
| 20260831204211 | 76 | 180 | 0.0 | 0.0 | 0.01 | 0.15 | 0.15 | 86 | 1021.9 |
| 20260831204109 | 76 | 180 | 0.0 | 1.0 | 0.01 | 0.15 | 0.15 | 84 | 1022.0 |
| 20260831204011 | 76 | 180 | 0.0 | 1.0 | 0.01 | 0.15 | 0.15 | 84 | 1021.9 |
| 20260831203903 | 75 | 180 | 0.0 | 1.0 | 0.01 | 0.15 | 0.15 | 82 | 1021.9 |
| 20260831203803 | 75 | 180 | 0.0 | 1.0 | 0.01 | 0.15 | 0.15 | 82 | 1022.0 |
| 20260831203704 | 75 | 180 | 0.0 | 1.0 | 0.02 | 0.15 | 0.15 | 83 | 1022.0 |
| 20260831203603 | 75 | 180 | 0.0 | 1.0 | 0.03 | 0.15 | 0.15 | 84 | 1022.0 |
| 20260831203501 | 75 | 180 | 0.0 | 1.0 | 0.04 | 0.15 | 0.15 | 83 | 1022.0 |
| 20260831203356 | 75 | 180 | 0.0 | 1.0 | 0.05 | 0.15 | 0.15 | 84 | 1022.0 |
| 20260831203254 | 75 | 180 | 0.0 | 1.0 | 0.05 | 0.15 | 0.15 | 84 | 1022.0 |
| 20260831203155 | 74 | 180 | 1.0 | 4.0 | 0.05 | 0.15 | 0.15 | 84 | 1022.0 |
| 20260831203053 | 74 | 170 | 1.0 | 4.0 | 0.06 | 0.15 | 0.15 | 84 | 1021.9 |
| 20260831202954 | 74 | 175 | 1.0 | 4.0 | 0.06 | 0.15 | 0.15 | 84 | 1021.9 |
| 20260831202849 | 74 | 176 | 2.0 | 4.0 | 0.06 | 0.15 | 0.15 | 85 | 1022.0 |
| 20260831202749 | 74 | 177 | 2.0 | 5.0 | 0.07 | 0.15 | 0.15 | 86 | 1022.0 |
| 20260831202648 | 74 | 158 | 2.0 | 5.0 | 0.07 | 0.15 | 0.15 | 87 | 1022.0 |
| 20260831202547 | 74 | 156 | 3.0 | 5.0 | 0.09 | 0.15 | 0.15 | 86 | 1022.1 |
| 20260831202449 | 74 | 158 | 3.0 | 5.0 | 0.10 | 0.15 | 0.15 | 85 | 1022.1 |
| 20260831202347 | 73 | 177 | 3.0 | 5.0 | 0.11 | 0.15 | 0.15 | 84 | 1022.1 |
| 20260831202246 | 73 | 179 | 3.0 | 5.0 | 0.11 | 0.15 | 0.15 | 83 | 1022.1 |
| 20260831202144 | 73 | 164 | 3.0 | 5.0 | 0.12 | 0.15 | 0.15 | 83 | 1022.2 |
| 20260831202043 | 73 | 175 | 3.0 | 5.0 | 0.14 | 0.15 | 0.15 | 83 | 1022.2 |
| 20260831201945 | 73 | 177 | 2.0 | 5.0 | 0.15 | 0.15 | 0.15 | 83 | 1022.1 |
| 20260831201843 | 73 | 188 | 2.0 | 5.0 | 0.15 | 0.15 | 0.15 | 84 | 1022.2 |
| 20260831201742 | 72 | 190 | 2.0 | 5.0 | 0.15 | 0.15 | 0.15 | 85 | 1022.1 |
| 20260831201642 | 72 | 190 | 1.0 | 5.0 | 0.15 | 0.15 | 0.15 | 86 | 1022.2 |
| 20260831201542 | 72 | 191 | 1.0 | 4.0 | 0.15 | 0.15 | 0.15 | 88 | 1022.2 |
| 20260831201441 | 72 | 193 | 1.0 | 4.0 | 0.15 | 0.15 | 0.15 | 88 | 1022.2 |
| 20260831201342 | 72 | 201 | 0.0 | 2.0 | 0.15 | 0.15 | 0.15 | 88 | 1022.2 |
| 20260831201241 | 72 | 200 | 0.0 | 2.0 | 0.15 | 0.15 | 0.15 | 88 | 1022.2 |
| 20260831201142 | 72 | 200 | 1.0 | 3.0 | 0.15 | 0.15 | 0.15 | 89 | 1022.2 |
| 20260831201041 | 72 | 196 | 1.0 | 3.0 | 0.15 | 0.15 | 0.15 | 89 | 1022.3 |
| 20260831200941 | 72 | 186 | 1.0 | 3.0 | 0.15 | 0.15 | 0.15 | 89 | 1022.3 |
| 20260831200842 | 72 | 189 | 1.0 | 3.0 | 0.15 | 0.15 | 0.15 | 89 | 1022.3 |
| 20260831200743 | 72 | 191 | 1.0 | 3.0 | 0.15 | 0.15 | 0.15 | 89 | 1022.2 |
| 20260831200635 | 72 | 194 | 1.0 | 3.0 | 0.15 | 0.15 | 0.15 | 89 | 1022.2 |
| 20260831200536 | 72 | 194 | 1.0 | 3.0 | 0.15 | 0.15 | 0.15 | 89 | 1022.3 |
| 20260831200435 | 72 | 196 | 2.0 | 3.0 | 0.15 | 0.15 | 0.15 | 89 | 1022.2 |
| 20260831200334 | 72 | 196 | 2.0 | 4.0 | 0.15 | 0.15 | 0.15 | 89 | 1022.3 |
| 20260831200232 | 72 | 197 | 2.0 | 4.0 | 0.15 | 0.15 | 0.15 | 89 | 1022.2 |
| 20260831200129 | 72 | 197 | 2.0 | 4.0 | 0.15 | 0.15 | 0.15 | 89 | 1022.3 |
| 20260831200031 | 72 | 197 | 2.0 | 4.0 | 0.15 | 0.15 | 0.15 | 89 | 1022.3 |
| 20260831195927 | 72 | 197 | 2.0 | 4.0 | 0.15 | 0.15 | 0.15 | 89 | 1022.4 |
| 20260831195828 | 72 | 197 | 2.0 | 4.0 | 0.15 | 0.15 | 0.15 | 89 | 1022.3 |
| 20260831195726 | 72 | 197 | 2.0 | 4.0 | 0.15 | 0.15 | 0.15 | 89 | 1022.3 |
| 20260831195621 | 72 | 198 | 2.0 | 4.0 | 0.15 | 0.15 | 0.15 | 89 | 1022.4 |
| 20260831195519 | 72 | 197 | 1.0 | 4.0 | 0.15 | 0.15 | 0.15 | 89 | 1022.4 |
| 20260831195420 | 72 | 197 | 1.0 | 4.0 | 0.15 | 0.15 | 0.15 | 89 | 1022.3 |
| 20260831195319 | 72 | 198 | 1.0 | 4.0 | 0.15 | 0.15 | 0.15 | 89 | 1022.4 |
| 20260831195219 | 72 | 197 | 1.0 | 4.0 | 0.15 | 0.15 | 0.15 | 89 | 1022.4 |
| 20260831195111 | 72 | 198 | 0.0 | 4.0 | 0.15 | 0.15 | 0.15 | 88 | 1022.4 |
| 20260831195012 | 72 | 188 | 0.0 | 2.0 | 0.15 | 0.15 | 0.15 | 89 | 1022.4 |
| 20260831194911 | 72 | 192 | 0.0 | 3.0 | 0.15 | 0.15 | 0.15 | 89 | 1022.5 |
| 20260831194811 | 72 | 192 | 1.0 | 3.0 | 0.14 | 0.14 | 0.14 | 89 | 1022.5 |
| 20260831194708 | 72 | 192 | 1.0 | 3.0 | 0.14 | 0.14 | 0.14 | 89 | 1022.6 |
| 20260831194602 | 72 | 192 | 1.0 | 4.0 | 0.14 | 0.14 | 0.14 | 89 | 1022.6 |
| 20260831194501 | 72 | 192 | 1.0 | 4.0 | 0.14 | 0.14 | 0.14 | 90 | 1022.6 |
| 20260831194403 | 72 | 192 | 2.0 | 4.0 | 0.14 | 0.14 | 0.14 | 90 | 1022.6 |
| 20260831194303 | 72 | 192 | 2.0 | 6.0 | 0.14 | 0.14 | 0.14 | 90 | 1022.6 |
| 20260831194202 | 72 | 192 | 2.0 | 7.0 | 0.14 | 0.14 | 0.14 | 90 | 1022.6 |
| 20260831194059 | 72 | 192 | 2.0 | 7.0 | 0.14 | 0.14 | 0.14 | 89 | 1022.6 |
| 20260831193958 | 72 | 192 | 2.0 | 7.0 | 0.14 | 0.14 | 0.14 | 89 | 1022.7 |
| 20260831193857 | 72 | 193 | 2.0 | 7.0 | 0.14 | 0.14 | 0.14 | 89 | 1022.7 |
| 20260831193757 | 72 | 195 | 2.0 | 7.0 | 0.13 | 0.13 | 0.13 | 89 | 1022.8 |
| 20260831193657 | 72 | 196 | 2.0 | 7.0 | 0.12 | 0.12 | 0.12 | 88 | 1022.8 |
| 20260831193558 | 72 | 252 | 2.0 | 7.0 | 0.11 | 0.11 | 0.11 | 88 | 1022.8 |
| 20260831193459 | 72 | 252 | 2.0 | 7.0 | 0.11 | 0.11 | 0.11 | 87 | 1022.9 |
| 20260831193358 | 73 | 252 | 2.0 | 7.0 | 0.10 | 0.10 | 0.11 | 87 | 1022.9 |
| 20260831193258 | 73 | 265 | 1.0 | 7.0 | 0.10 | 0.10 | 0.10 | 87 | 1022.9 |
| 20260831193157 | 73 | 265 | 1.0 | 7.0 | 0.10 | 0.10 | 0.10 | 87 | 1022.8 |
| 20260831193058 | 73 | 276 | 1.0 | 7.0 | 0.09 | 0.09 | 0.10 | 88 | 1022.8 |
| 20260831192959 | 73 | 281 | 0.0 | 7.0 | 0.09 | 0.09 | 0.09 | 87 | 1022.8 |
| 20260831192854 | 74 | 284 | 0.0 | 7.0 | 0.09 | 0.09 | 0.09 | 87 | 1022.8 |
| 20260831192755 | 74 | 267 | 0.0 | 7.0 | 0.08 | 0.08 | 0.09 | 87 | 1022.9 |
| 20260831192655 | 74 | 324 | 0.0 | 5.0 | 0.08 | 0.08 | 0.08 | 87 | 1022.9 |
| 20260831192553 | 74 | 292 | 0.0 | 0.0 | 0.06 | 0.06 | 0.07 | 87 | 1022.9 |
| 20260831192453 | 74 | 265 | 0.0 | 0.0 | 0.05 | 0.05 | 0.06 | 87 | 1022.9 |
| 20260831192354 | 74 | 210 | 0.0 | 0.0 | 0.04 | 0.04 | 0.05 | 86 | 1022.9 |
| 20260831192255 | 74 | 200 | 0.0 | 0.0 | 0.04 | 0.04 | 0.04 | 86 | 1023.0 |
| 20260831192155 | 75 | 281 | 0.0 | 0.0 | 0.03 | 0.03 | 0.04 | 86 | 1023.1 |
| 20260831192053 | 75 | 301 | 0.0 | 0.0 | 0.01 | 0.01 | 0.02 | 86 | 1023.1 |
| 20260831191955 | 75 | 329 | 0.0 | 0.0 | 0.00 | 0.00 | 0.01 | 85 | 1023.1 |
| 20260831191853 | 75 | 321 | 0.0 | 0.0 | 0.00 | 0.00 | 0.00 | 85 | 1023.0 |
| 20260831191755 | 75 | 324 | 0.0 | 0.0 | 0.00 | 0.00 | 0.00 | 84 | 1023.1 |
| 20260831191653 | 75 | 323 | 0.0 | 0.0 | 0.00 | 0.00 | 0.00 | 83 | 1023.1 |
| 20260831191553 | 75 | 314 | 0.0 | 0.0 | 0.00 | 0.00 | 0.00 | 83 | 1023.1 |
| 20260831191455 | 75 | 315 | 0.0 | 0.0 | 0.00 | 0.00 | 0.00 | 83 | 1023.1 |
| 20260831191354 | 76 | 328 | 0.0 | 0.0 | 0.00 | 0.00 | 0.00 | 82 | 1023.2 |
| 20260831191254 | 76 | 315 | 0.0 | 0.0 | 0.00 | 0.00 | 0.00 | 82 | 1023.2 |
| 20260831191153 | 76 | 280 | 0.0 | 0.0 | 0.00 | 0.00 | 0.00 | 81 | 1023.2 |
| 20260831191053 | 76 | 338 | 0.0 | 0.0 | 0.00 | 0.00 | 0.00 | 81 | 1023.2 |
| 20260831190956 | 76 | 348 | 0.0 | 0.0 | 0.00 | 0.00 | 0.00 | 81 | 1023.2 |
| 20260831190855 | 76 | 5 | 0.0 | 0.0 | 0.00 | 0.00 | 0.00 | 81 | 1023.2 |
| 20260831190755 | 76 | 297 | 0.0 | 0.0 | 0.00 | 0.00 | 0.00 | 80 | 1023.3 |
| 20260831190653 | 77 | 323 | 0.0 | 0.0 | 0.00 | 0.00 | 0.00 | 79 | 1023.3 |
| 20260831190554 | 77 | 335 | 0.0 | 0.0 | 0.00 | 0.00 | 0.00 | 79 | 1023.3 |
| 20260831190454 | 77 | 336 | 0.0 | 0.0 | 0.00 | 0.00 | 0.00 | 78 | 1023.5 |
| 20260831190354 | 78 | 344 | 0.0 | 0.0 | 0.00 | 0.00 | 0.00 | 78 | 1023.3 |
| 20260831190255 | 78 | 339 | 0.0 | 0.0 | 0.00 | 0.00 | 0.00 | 77 | 1023.5 |
| 20260831190154 | 78 | 331 | 0.0 | 0.0 | 0.00 | 0.00 | 0.00 | 76 | 1023.3 |
| 20260831190055 | 79 | 309 | 0.0 | 0.0 | 0.00 | 0.00 | 0.00 | 75 | 1023.3 |
| 20260831185955 | 80 | 355 | 0.0 | 0.0 | 0.00 | 0.00 | 0.00 | 74 | 1023.5 |
| 20260831185853 | 80 | 321 | 0.0 | 0.0 | 0.00 | 0.00 | 0.00 | 75 | 1023.5 |
| 20260831185755 | 80 | 355 | 0.0 | 0.0 | 0.00 | 0.00 | 0.00 | 73 | 1023.3 |
| 20260831185653 | 81 | 342 | 0.0 | 0.0 | 0.00 | 0.00 | 0.00 | 73 | 1023.3 |
| 20260831185553 | 82 | 328 | 0.0 | 0.0 | 0.00 | 0.00 | 0.00 | 72 | 1023.3 |
| 20260831185451 | 82 | 21 | 0.0 | 0.0 | 0.00 | 0.00 | 0.00 | 71 | 1023.3 |
| 20260831185353 | 83 | 5 | 0.0 | 0.0 | 0.00 | 0.00 | 0.00 | 71 | 1023.3 |
| 20260831185252 | 83 | 314 | 0.0 | 0.0 | 0.00 | 0.00 | 0.00 | 70 | 1023.2 |
| 20260831185153 | 84 | 334 | 0.0 | 0.0 | 0.00 | 0.00 | 0.00 | 70 | 1023.2 |
| 20260831185051 | 84 | 15 | 0.0 | 0.0 | 0.00 | 0.00 | 0.00 | 70 | 1023.1 |
| 20260831184953 | 85 | 40 | 0.0 | 0.0 | 0.00 | 0.00 | 0.00 | 69 | 1023.0 |
| 20260831184847 | 85 | 59 | 0.0 | 0.0 | 0.00 | 0.00 | 0.00 | 67 | 1023.0 |
| 20260831184748 | 85 | 24 | 0.0 | 0.0 | 0.00 | 0.00 | 0.00 | 67 | 1023.0 |
| 20260831184648 | 85 | 67 | 0.0 | 0.0 | 0.00 | 0.00 | 0.00 | 65 | 1022.8 |
| 20260831184547 | 86 | 67 | 0.0 | 0.0 | 0.00 | 0.00 | 0.00 | 65 | 1022.8 |
| 20260831184448 | 86 | 69 | 0.0 | 0.0 | 0.00 | 0.00 | 0.00 | 64 | 1022.8 |
| 20260831184349 | 86 | 71 | 0.0 | 0.0 | 0.00 | 0.00 | 0.00 | 64 | 1022.8 |
| 20260831184247 | 86 | 73 | 0.0 | 0.0 | 0.00 | 0.00 | 0.00 | 68 | 1022.8 |
| 20260831184147 | 86 | 86 | 0.0 | 0.0 | 0.00 | 0.00 | 0.00 | 66 | 1022.8 |
| 20260831184047 | 86 | 86 | 0.0 | 0.0 | 0.00 | 0.00 | 0.00 | 65 | 1022.7 |
| 20260831183949 | 86 | 65 | 0.0 | 0.0 | 0.00 | 0.00 | 0.00 | 66 | 1022.7 |
| 20260831183848 | 86 | 35 | 0.0 | 0.0 | 0.00 | 0.00 | 0.00 | 64 | 1022.7 |
| 20260831183748 | 86 | 149 | 0.0 | 0.0 | 0.00 | 0.00 | 0.00 | 64 | 1022.7 |
| 20260831183649 | 86 | 149 | 0.0 | 1.0 | 0.00 | 0.00 | 0.00 | 65 | 1022.7 |
| 20260831183547 | 86 | 155 | 0.0 | 1.0 | 0.00 | 0.00 | 0.00 | 65 | 1022.7 |
| 20260831183448 | 86 | 159 | 0.0 | 1.0 | 0.00 | 0.00 | 0.00 | 65 | 1022.7 |
| 20260831183348 | 86 | 131 | 0.0 | 1.0 | 0.00 | 0.00 | 0.00 | 65 | 1022.7 |
| 20260831183248 | 86 | 111 | 0.0 | 1.0 | 0.00 | 0.00 | 0.00 | 64 | 1022.6 |
| 20260831183147 | 86 | 117 | 0.0 | 1.0 | 0.00 | 0.00 | 0.00 | 63 | 1022.7 |
| 20260831183047 | 86 | 111 | 0.0 | 1.0 | 0.00 | 0.00 | 0.00 | 64 | 1022.7 |
| 20260831182948 | 86 | 112 | 0.0 | 1.0 | 0.00 | 0.00 | 0.00 | 64 | 1022.7 |
| 20260831182848 | 86 | 112 | 0.0 | 1.0 | 0.00 | 0.00 | 0.00 | 66 | 1022.7 |
| 20260831182747 | 86 | 166 | 0.0 | 1.0 | 0.00 | 0.00 | 0.00 | 64 | 1022.7 |
| 20260831182648 | 86 | 142 | 0.0 | 2.0 | 0.00 | 0.00 | 0.00 | 66 | 1022.7 |
| 20260831182548 | 86 | 161 | 0.0 | 4.0 | 0.00 | 0.00 | 0.00 | 66 | 1022.8 |
| 20260831182447 | 86 | 82 | 0.0 | 4.0 | 0.00 | 0.00 | 0.00 | 65 | 1022.7 |
| 20260831182349 | 86 | 50 | 0.0 | 4.0 | 0.00 | 0.00 | 0.00 | 63 | 1022.7 |
| 20260831182247 | 86 | 51 | 0.0 | 4.0 | 0.00 | 0.00 | 0.00 | 63 | 1022.7 |
| 20260831182147 | 86 | 51 | 1.0 | 4.0 | 0.00 | 0.00 | 0.00 | 64 | 1022.7 |
| 20260831182049 | 86 | 40 | 1.0 | 5.0 | 0.00 | 0.00 | 0.00 | 64 | 1022.8 |
| 20260831181947 | 86 | 44 | 2.0 | 6.0 | 0.00 | 0.00 | 0.00 | 63 | 1022.8 |
| 20260831181847 | 86 | 42 | 2.0 | 7.0 | 0.00 | 0.00 | 0.00 | 65 | 1022.8 |
| 20260831181748 | 86 | 347 | 3.0 | 7.0 | 0.00 | 0.00 | 0.00 | 62 | 1022.7 |
| 20260831181649 | 86 | 347 | 3.0 | 7.0 | 0.00 | 0.00 | 0.00 | 64 | 1022.8 |
| 20260831181543 | 86 | 37 | 3.0 | 7.0 | 0.00 | 0.00 | 0.00 | 68 | 1022.8 |
| 20260831181444 | 86 | 58 | 3.0 | 7.0 | 0.00 | 0.00 | 0.00 | 63 | 1022.7 |
| 20260831181344 | 86 | 59 | 3.0 | 7.0 | 0.00 | 0.00 | 0.00 | 64 | 1022.8 |
| 20260831181243 | 86 | 59 | 3.0 | 7.0 | 0.00 | 0.00 | 0.00 | 63 | 1022.7 |
| 20260831181143 | 86 | 57 | 3.0 | 7.0 | 0.00 | 0.00 | 0.00 | 64 | 1022.7 |
| 20260831181044 | 86 | 84 | 3.0 | 7.0 | 0.00 | 0.00 | 0.00 | 67 | 1022.7 |
| 20260831180943 | 86 | 88 | 3.0 | 7.0 | 0.00 | 0.00 | 0.00 | 67 | 1022.8 |
| 20260831180844 | 86 | 61 | 2.0 | 7.0 | 0.00 | 0.00 | 0.00 | 66 | 1022.8 |
| 20260831180743 | 86 | 107 | 2.0 | 6.0 | 0.00 | 0.00 | 0.00 | 70 | 1022.7 |
| 20260831180645 | 86 | 64 | 2.0 | 5.0 | 0.00 | 0.00 | 0.00 | 68 | 1022.7 |
| 20260831180543 | 86 | 57 | 2.0 | 6.0 | 0.00 | 0.00 | 0.00 | 66 | 1022.7 |
| 20260831180444 | 86 | 58 | 2.0 | 6.0 | 0.00 | 0.00 | 0.00 | 63 | 1022.8 |
| 20260831180343 | 86 | 56 | 2.0 | 6.0 | 0.00 | 0.00 | 0.00 | 64 | 1022.8 |
| 20260831180244 | 86 | 55 | 2.0 | 6.0 | 0.00 | 0.00 | 0.00 | 62 | 1022.8 |
| 20260831180143 | 86 | 55 | 2.0 | 6.0 | 0.00 | 0.00 | 0.00 | 64 | 1022.7 |
| 20260831180043 | 86 | 55 | 2.0 | 6.0 | 0.00 | 0.00 | 0.00 | 66 | 1022.8 |
| 20260831175943 | 86 | 55 | 1.0 | 6.0 | 0.00 | 0.00 | 0.00 | 67 | 1022.8 |
| 20260831175844 | 86 | 57 | 1.0 | 6.0 | 0.00 | 0.00 | 0.00 | 63 | 1022.8 |
| 20260831175743 | 86 | 83 | 1.0 | 6.0 | 0.00 | 0.00 | 0.00 | 65 | 1022.8 |
| 20260831175645 | 86 | 96 | 1.0 | 6.0 | 0.00 | 0.00 | 0.00 | 66 | 1022.7 |
| 20260831175544 | 86 | 144 | 0.0 | 5.0 | 0.00 | 0.00 | 0.00 | 64 | 1022.8 |
| 20260831175444 | 86 | 141 | 0.0 | 0.0 | 0.00 | 0.00 | 0.00 | 64 | 1022.9 |
| 20260831175343 | 86 | 141 | 0.0 | 0.0 | 0.00 | 0.00 | 0.00 | 63 | 1022.9 |
| 20260831175243 | 85 | 141 | 0.0 | 0.0 | 0.00 | 0.00 | 0.00 | 62 | 1022.7 |
| 20260831175143 | 85 | 141 | 0.0 | 0.0 | 0.00 | 0.00 | 0.00 | 65 | 1022.9 |
| 20260831175044 | 85 | 141 | 0.0 | 0.0 | 0.00 | 0.00 | 0.00 | 67 | 1022.9 |
| 20260831174943 | 85 | 141 | 0.0 | 0.0 | 0.00 | 0.00 | 0.00 | 67 | 1022.8 |
| 20260831174845 | 85 | 141 | 0.0 | 0.0 | 0.00 | 0.00 | 0.00 | 65 | 1022.9 |
| 20260831174745 | 85 | 142 | 0.0 | 2.0 | 0.00 | 0.00 | 0.00 | 64 | 1022.9 |
| 20260831174643 | 85 | 130 | 0.0 | 3.0 | 0.00 | 0.00 | 0.00 | 68 | 1023.0 |
| 20260831174543 | 85 | 101 | 1.0 | 3.0 | 0.00 | 0.00 | 0.00 | 69 | 1023.0 |
| 20260831174445 | 85 | 335 | 1.0 | 3.0 | 0.00 | 0.00 | 0.00 | 68 | 1023.1 |
| 20260831174344 | 85 | 333 | 1.0 | 4.0 | 0.00 | 0.00 | 0.00 | 67 | 1023.0 |
| 20260831174239 | 85 | 335 | 2.0 | 8.0 | 0.00 | 0.00 | 0.00 | 68 | 1023.0 |
| 20260831174139 | 85 | 327 | 2.0 | 8.0 | 0.00 | 0.00 | 0.00 | 67 | 1023.0 |
| 20260831174040 | 85 | 329 | 2.0 | 8.0 | 0.00 | 0.00 | 0.00 | 67 | 1023.0 |
| 20260831173939 | 85 | 14 | 3.0 | 8.0 | 0.00 | 0.00 | 0.00 | 66 | 1023.0 |
| 20260831173839 | 85 | 15 | 3.0 | 8.0 | 0.00 | 0.00 | 0.00 | 66 | 1023.1 |
| 20260831173741 | 85 | 15 | 3.0 | 8.0 | 0.00 | 0.00 | 0.00 | 64 | 1023.1 |
| 20260831173639 | 84 | 15 | 3.0 | 8.0 | 0.00 | 0.00 | 0.00 | 64 | 1023.0 |
| 20260831173541 | 84 | 69 | 4.0 | 8.0 | 0.00 | 0.00 | 0.00 | 65 | 1023.1 |
| 20260831173440 | 84 | 69 | 4.0 | 8.0 | 0.00 | 0.00 | 0.00 | 65 | 1023.1 |
| 20260831173340 | 85 | 63 | 4.0 | 8.0 | 0.00 | 0.00 | 0.00 | 67 | 1023.1 |
| 20260831173239 | 85 | 80 | 4.0 | 8.0 | 0.00 | 0.00 | 0.00 | 67 | 1023.1 |
| 20260831173139 | 85 | 80 | 4.0 | 8.0 | 0.00 | 0.00 | 0.00 | 68 | 1023.1 |
| 20260831173040 | 84 | 105 | 4.0 | 8.0 | 0.00 | 0.00 | 0.00 | 66 | 1023.1 |
| 20260831172939 | 85 | 102 | 4.0 | 8.0 | 0.00 | 0.00 | 0.00 | 66 | 1023.1 |
| 20260831172840 | 85 | 123 | 4.0 | 8.0 | 0.00 | 0.00 | 0.00 | 69 | 1023.1 |
| 20260831172739 | 84 | 67 | 4.0 | 8.0 | 0.00 | 0.00 | 0.00 | 66 | 1023.2 |
| 20260831172639 | 85 | 45 | 4.0 | 8.0 | 0.00 | 0.00 | 0.00 | 65 | 1023.2 |
| 20260831172541 | 85 | 40 | 4.0 | 8.0 | 0.00 | 0.00 | 0.00 | 68 | 1023.2 |
| 20260831172439 | 85 | 64 | 4.0 | 8.0 | 0.00 | 0.00 | 0.00 | 65 | 1023.2 |
| 20260831172339 | 85 | 63 | 3.0 | 8.0 | 0.00 | 0.00 | 0.00 | 65 | 1023.2 |
| 20260831172241 | 85 | 78 | 3.0 | 8.0 | 0.00 | 0.00 | 0.00 | 67 | 1023.2 |
| 20260831172140 | 85 | 71 | 2.0 | 7.0 | 0.00 | 0.00 | 0.00 | 65 | 1023.2 |
| 20260831172040 | 85 | 96 | 2.0 | 7.0 | 0.00 | 0.00 | 0.00 | 67 | 1023.2 |
| 20260831171939 | 85 | 106 | 2.0 | 7.0 | 0.00 | 0.00 | 0.00 | 67 | 1023.2 |
| 20260831171839 | 85 | 106 | 2.0 | 7.0 | 0.00 | 0.00 | 0.00 | 67 | 1023.2 |
| 20260831171740 | 85 | 107 | 2.0 | 7.0 | 0.00 | 0.00 | 0.00 | 67 | 1023.2 |
| 20260831171630 | 85 | 115 | 2.0 | 7.0 | 0.00 | 0.00 | 0.00 | 66 | 1023.2 |
| 20260831171529 | 85 | 114 | 1.0 | 7.0 | 0.00 | 0.00 | 0.00 | 66 | 1023.2 |
| 20260831171427 | 85 | 110 | 1.0 | 7.0 | 0.00 | 0.00 | 0.00 | 68 | 1023.2 |
| 20260831171328 | 85 | 94 | 1.0 | 5.0 | 0.00 | 0.00 | 0.00 | 65 | 1023.2 |
| 20260831171229 | 85 | 78 | 1.0 | 5.0 | 0.00 | 0.00 | 0.00 | 68 | 1023.2 |
| 20260831171124 | 85 | 53 | 1.0 | 5.0 | 0.00 | 0.00 | 0.00 | 67 | 1023.3 |
| 20260831171022 | 85 | 5 | 1.0 | 5.0 | 0.00 | 0.00 | 0.00 | 67 | 1023.2 |
| 20260831170921 | 84 | 5 | 2.0 | 5.0 | 0.00 | 0.00 | 0.00 | 65 | 1023.2 |
| 20260831170821 | 84 | 5 | 2.0 | 5.0 | 0.00 | 0.00 | 0.00 | 65 | 1023.2 |
| 20260831170720 | 84 | 67 | 2.0 | 5.0 | 0.00 | 0.00 | 0.00 | 68 | 1023.3 |
| 20260831170613 | 84 | 40 | 2.0 | 5.0 | 0.00 | 0.00 | 0.00 | 67 | 1023.2 |
| 20260831170514 | 84 | 34 | 2.0 | 5.0 | 0.00 | 0.00 | 0.00 | 66 | 1023.3 |
| 20260831170413 | 84 | 34 | 2.0 | 5.0 | 0.00 | 0.00 | 0.00 | 67 | 1023.3 |
| 20260831170315 | 84 | 51 | 2.0 | 5.0 | 0.00 | 0.00 | 0.00 | 67 | 1023.3 |
| 20260831170211 | 84 | 51 | 2.0 | 5.0 | 0.00 | 0.00 | 0.00 | 65 | 1023.3 |
| 20260831170105 | 84 | 51 | 2.0 | 5.0 | 0.00 | 0.00 | 0.00 | 67 | 1023.3 |
| 20260831170003 | 84 | 51 | 2.0 | 5.0 | 0.00 | 0.00 | 0.00 | 66 | 1023.2 |
| 20260831165902 | 84 | 51 | 2.0 | 5.0 | 0.00 | 0.00 | 0.00 | 68 | 1023.2 |
| 20260831165801 | 84 | 46 | 2.0 | 5.0 | 0.00 | 0.00 | 0.00 | 69 | 1023.3 |
| 20260831165702 | 84 | 43 | 2.0 | 5.0 | 0.00 | 0.00 | 0.00 | 68 | 1023.3 |
| 20260831165555 | 84 | 57 | 2.0 | 5.0 | 0.00 | 0.00 | 0.00 | 66 | 1023.2 |
| 20260831165455 | 84 | 61 | 2.0 | 5.0 | 0.00 | 0.00 | 0.00 | 65 | 1023.2 |
| 20260831165356 | 84 | 74 | 2.0 | 4.0 | 0.00 | 0.00 | 0.00 | 67 | 1023.3 |
| 20260831165255 | 84 | 346 | 2.0 | 4.0 | 0.00 | 0.00 | 0.00 | 66 | 1023.2 |
| 20260831165156 | 83 | 346 | 2.0 | 4.0 | 0.00 | 0.00 | 0.00 | 66 | 1023.3 |
| 20260831165056 | 83 | 345 | 2.0 | 4.0 | 0.00 | 0.00 | 0.00 | 66 | 1023.3 |
| 20260831164953 | 83 | 346 | 2.0 | 4.0 | 0.00 | 0.00 | 0.00 | 67 | 1023.2 |
| 20260831164853 | 83 | 346 | 2.0 | 4.0 | 0.00 | 0.00 | 0.00 | 68 | 1023.3 |
| 20260831164752 | 83 | 355 | 3.0 | 4.0 | 0.00 | 0.00 | 0.00 | 68 | 1023.3 |
| 20260831164649 | 83 | 0 | 3.0 | 5.0 | 0.00 | 0.00 | 0.00 | 67 | 1023.5 |
| 20260831164541 | 83 | 0 | 3.0 | 5.0 | 0.00 | 0.00 | 0.00 | 67 | 1023.5 |
| 20260831164441 | 83 | 0 | 3.0 | 5.0 | 0.00 | 0.00 | 0.00 | 66 | 1023.5 |
| 20260831164341 | 83 | 9 | 3.0 | 5.0 | 0.00 | 0.00 | 0.00 | 67 | 1023.3 |
| 20260831164240 | 83 | 9 | 3.0 | 5.0 | 0.00 | 0.00 | 0.00 | 66 | 1023.6 |
| 20260831164138 | 83 | 323 | 3.0 | 5.0 | 0.00 | 0.00 | 0.00 | 66 | 1023.5 |
| 20260831164035 | 83 | 323 | 3.0 | 5.0 | 0.00 | 0.00 | 0.00 | 66 | 1023.5 |
| 20260831163934 | 83 | 324 | 2.0 | 5.0 | 0.00 | 0.00 | 0.00 | 66 | 1023.6 |
| 20260831163833 | 83 | 340 | 2.0 | 5.0 | 0.00 | 0.00 | 0.00 | 65 | 1023.5 |
| 20260831163732 | 83 | 334 | 2.0 | 5.0 | 0.00 | 0.00 | 0.00 | 66 | 1023.6 |
| 20260831163630 | 83 | 315 | 1.0 | 5.0 | 0.00 | 0.00 | 0.00 | 64 | 1023.5 |
| 20260831163527 | 83 | 313 | 1.0 | 4.0 | 0.00 | 0.00 | 0.00 | 66 | 1023.5 |
| 20260831163424 | 83 | 333 | 1.0 | 4.0 | 0.00 | 0.00 | 0.00 | 67 | 1023.5 |
| 20260831163325 | 83 | 28 | 0.0 | 3.0 | 0.00 | 0.00 | 0.00 | 65 | 1023.5 |
| 20260831163224 | 83 | 29 | 0.0 | 2.0 | 0.00 | 0.00 | 0.00 | 64 | 1023.3 |
| 20260831163124 | 83 | 29 | 0.0 | 0.0 | 0.00 | 0.00 | 0.00 | 64 | 1023.3 |
| 20260831163017 | 83 | 28 | 0.0 | 3.0 | 0.00 | 0.00 | 0.00 | 63 | 1023.6 |
| 20260831162917 | 84 | 26 | 0.0 | 3.0 | 0.00 | 0.00 | 0.00 | 63 | 1023.5 |
| 20260831162818 | 84 | 48 | 1.0 | 4.0 | 0.00 | 0.00 | 0.00 | 64 | 1023.5 |
| 20260831162715 | 84 | 86 | 1.0 | 4.0 | 0.00 | 0.00 | 0.00 | 64 | 1023.5 |
| 20260831162613 | 84 | 92 | 1.0 | 4.0 | 0.00 | 0.00 | 0.00 | 64 | 1023.5 |
| 20260831162514 | 84 | 95 | 1.0 | 4.0 | 0.00 | 0.00 | 0.00 | 64 | 1023.6 |
| 20260831162411 | 84 | 95 | 1.0 | 4.0 | 0.00 | 0.00 | 0.00 | 66 | 1023.5 |
| 20260831162311 | 84 | 98 | 2.0 | 5.0 | 0.00 | 0.00 | 0.00 | 65 | 1023.6 |
| 20260831162211 | 84 | 87 | 2.0 | 5.0 | 0.00 | 0.00 | 0.00 | 66 | 1023.5 |
| 20260831162107 | 84 | 71 | 2.0 | 5.0 | 0.00 | 0.00 | 0.00 | 67 | 1023.6 |
| 20260831162003 | 84 | 5 | 1.0 | 5.0 | 0.00 | 0.00 | 0.00 | 65 | 1023.6 |
| 20260831161901 | 84 | 52 | 1.0 | 5.0 | 0.00 | 0.00 | 0.00 | 66 | 1023.6 |
| 20260831161803 | 84 | 57 | 1.0 | 5.0 | 0.00 | 0.00 | 0.00 | 66 | 1023.5 |
| 20260831161701 | 84 | 45 | 1.0 | 5.0 | 0.00 | 0.00 | 0.00 | 69 | 1023.5 |
| 20260831161602 | 84 | 120 | 1.0 | 5.0 | 0.00 | 0.00 | 0.00 | 70 | 1023.5 |
| 20260831161454 | 83 | 157 | 1.0 | 5.0 | 0.00 | 0.00 | 0.00 | 69 | 1023.5 |
| 20260831161357 | 83 | 157 | 1.0 | 5.0 | 0.00 | 0.00 | 0.00 | 69 | 1023.5 |
| 20260831161255 | 83 | 49 | 1.0 | 4.0 | 0.00 | 0.00 | 0.00 | 67 | 1023.5 |
| 20260831161155 | 83 | 49 | 1.0 | 4.0 | 0.00 | 0.00 | 0.00 | 68 | 1023.6 |
| 20260831161051 | 83 | 49 | 1.0 | 4.0 | 0.00 | 0.00 | 0.00 | 68 | 1023.6 |
| 20260831160952 | 83 | 49 | 1.0 | 4.0 | 0.00 | 0.00 | 0.00 | 67 | 1023.5 |
| 20260831160850 | 83 | 49 | 2.0 | 4.0 | 0.00 | 0.00 | 0.00 | 67 | 1023.6 |
| 20260831160747 | 83 | 49 | 1.0 | 4.0 | 0.00 | 0.00 | 0.00 | 66 | 1023.6 |
| 20260831160647 | 83 | 49 | 1.0 | 4.0 | 0.00 | 0.00 | 0.00 | 68 | 1023.6 |
| 20260831160546 | 83 | 49 | 1.0 | 4.0 | 0.00 | 0.00 | 0.00 | 68 | 1023.6 |
| 20260831160441 | 83 | 49 | 1.0 | 4.0 | 0.00 | 0.00 | 0.00 | 69 | 1023.5 |
| 20260831160341 | 83 | 49 | 1.0 | 4.0 | 0.00 | 0.00 | 0.00 | 72 | 1023.5 |
| 20260831160241 | 83 | 48 | 1.0 | 4.0 | 0.00 | 0.00 | 0.00 | 69 | 1023.6 |
| 20260831160141 | 83 | 48 | 1.0 | 4.0 | 0.00 | 0.00 | 0.00 | 70 | 1023.5 |
| 20260831160038 | 83 | 49 | 1.0 | 4.0 | 0.00 | 0.00 | 0.00 | 71 | 1023.5 |
| 20260831155930 | 83 | 49 | 1.0 | 4.0 | 0.00 | 0.00 | 0.00 | 72 | 1023.5 |
| 20260831155828 | 83 | 49 | 0.0 | 4.0 | 0.00 | 0.00 | 0.00 | 72 | 1023.5 |
| 20260831155728 | 82 | 49 | 0.0 | 2.0 | 0.00 | 0.00 | 0.00 | 72 | 1023.5 |
| 20260831155628 | 82 | 49 | 0.0 | 2.0 | 0.00 | 0.00 | 0.00 | 70 | 1023.5 |
| 20260831155528 | 82 | 49 | 0.0 | 2.0 | 0.00 | 0.00 | 0.00 | 71 | 1023.5 |
| 20260831155425 | 82 | 49 | 0.0 | 2.0 | 0.00 | 0.00 | 0.00 | 71 | 1023.5 |
| 20260831155326 | 82 | 49 | 0.0 | 2.0 | 0.00 | 0.00 | 0.00 | 71 | 1023.5 |
| 20260831155226 | 82 | 41 | 0.0 | 0.0 | 0.00 | 0.00 | 0.00 | 73 | 1023.5 |
| 20260831155125 | 82 | 344 | 0.0 | 0.0 | 0.00 | 0.00 | 0.00 | 74 | 1023.5 |
| 20260831155022 | 82 | 344 | 0.0 | 0.0 | 0.00 | 0.00 | 0.00 | 73 | 1023.5 |
| 20260831154922 | 82 | 344 | 0.0 | 0.0 | 0.00 | 0.00 | 0.00 | 75 | 1023.5 |
| 20260831154819 | 82 | 344 | 0.0 | 0.0 | 0.00 | 0.00 | 0.00 | 73 | 1023.5 |
| 20260831154719 | 82 | 344 | 0.0 | 0.0 | 0.00 | 0.00 | 0.00 | 75 | 1023.5 |
| 20260831154618 | 82 | 5 | 0.0 | 0.0 | 0.00 | 0.00 | 0.00 | 77 | 1023.5 |
| 20260831154516 | 82 | 15 | 0.0 | 0.0 | 0.00 | 0.00 | 0.00 | 76 | 1023.5 |
| 20260831154405 | 82 | 317 | 0.0 | 0.0 | 0.00 | 0.00 | 0.00 | 74 | 1023.5 |
| 20260831154305 | 81 | 314 | 0.0 | 0.0 | 0.00 | 0.00 | 0.00 | 73 | 1023.5 |
| 20260831154206 | 82 | 290 | 0.0 | 0.0 | 0.00 | 0.00 | 0.00 | 74 | 1023.5 |
| 20260831154106 | 81 | 304 | 0.0 | 0.0 | 0.00 | 0.00 | 0.00 | 75 | 1023.5 |
| 20260831154006 | 81 | 304 | 0.0 | 0.0 | 0.00 | 0.00 | 0.00 | 73 | 1023.5 |
| 20260831153904 | 81 | 304 | 0.0 | 0.0 | 0.00 | 0.00 | 0.00 | 73 | 1023.3 |
| 20260831153803 | 81 | 305 | 0.0 | 0.0 | 0.00 | 0.00 | 0.00 | 73 | 1023.5 |
| 20260831153704 | 81 | 304 | 0.0 | 0.0 | 0.00 | 0.00 | 0.00 | 73 | 1023.6 |
| 20260831153602 | 81 | 305 | 0.0 | 0.0 | 0.00 | 0.00 | 0.00 | 73 | 1023.5 |
| 20260831153500 | 81 | 316 | 0.0 | 0.0 | 0.00 | 0.00 | 0.00 | 76 | 1023.6 |
| 20260831153400 | 81 | 10 | 0.0 | 0.0 | 0.00 | 0.00 | 0.00 | 75 | 1023.6 |
| 20260831153258 | 81 | 11 | 0.0 | 0.0 | 0.00 | 0.00 | 0.00 | 76 | 1023.6 |
| 20260831153155 | 81 | 11 | 0.0 | 0.0 | 0.00 | 0.00 | 0.00 | 74 | 1023.6 |
| 20260831153056 | 81 | 355 | 0.0 | 0.0 | 0.00 | 0.00 | 0.00 | 74 | 1023.6 |
| 20260831152955 | 81 | 337 | 0.0 | 0.0 | 0.00 | 0.00 | 0.00 | 75 | 1023.6 |
| 20260831152847 | 81 | 337 | 0.0 | 0.0 | 0.00 | 0.00 | 0.00 | 74 | 1023.6 |
| 20260831152747 | 81 | 318 | 0.0 | 0.0 | 0.00 | 0.00 | 0.00 | 75 | 1023.6 |
| 20260831152647 | 81 | 335 | 0.0 | 0.0 | 0.00 | 0.00 | 0.00 | 74 | 1023.6 |
| 20260831152545 | 81 | 332 | 0.0 | 0.0 | 0.00 | 0.00 | 0.00 | 74 | 1023.6 |
| 20260831152444 | 81 | 314 | 0.0 | 0.0 | 0.00 | 0.00 | 0.00 | 74 | 1023.6 |
| 20260831152343 | 81 | 314 | 0.0 | 0.0 | 0.00 | 0.00 | 0.00 | 74 | 1023.5 |
| 20260831152242 | 81 | 314 | 0.0 | 0.0 | 0.00 | 0.00 | 0.00 | 73 | 1023.5 |
| 20260831152141 | 81 | 320 | 0.0 | 0.0 | 0.00 | 0.00 | 0.00 | 77 | 1023.6 |
| 20260831152039 | 81 | 350 | 0.0 | 0.0 | 0.00 | 0.00 | 0.00 | 77 | 1023.6 |
| 20260831151938 | 81 | 38 | 0.0 | 0.0 | 0.00 | 0.00 | 0.00 | 75 | 1023.5 |
| 20260831151838 | 81 | 17 | 0.0 | 0.0 | 0.00 | 0.00 | 0.00 | 74 | 1023.5 |
| 20260831151736 | 81 | 5 | 0.0 | 0.0 | 0.00 | 0.00 | 0.00 | 76 | 1023.5 |
| 20260831151635 | 81 | 5 | 0.0 | 0.0 | 0.00 | 0.00 | 0.00 | 75 | 1023.6 |
| 20260831151535 | 81 | 5 | 0.0 | 0.0 | 0.00 | 0.00 | 0.00 | 75 | 1023.6 |
| 20260831151432 | 81 | 325 | 0.0 | 0.0 | 0.00 | 0.00 | 0.00 | 76 | 1023.6 |
| 20260831151325 | 81 | 320 | 0.0 | 0.0 | 0.00 | 0.00 | 0.00 | 75 | 1023.6 |
| 20260831151221 | 81 | 333 | 0.0 | 0.0 | 0.00 | 0.00 | 0.00 | 76 | 1023.6 |
| 20260831151122 | 81 | 342 | 0.0 | 0.0 | 0.00 | 0.00 | 0.00 | 75 | 1023.5 |
| 20260831151021 | 81 | 330 | 0.0 | 0.0 | 0.00 | 0.00 | 0.00 | 77 | 1023.6 |
| 20260831150921 | 81 | 332 | 0.0 | 0.0 | 0.00 | 0.00 | 0.00 | 76 | 1023.5 |
| 20260831150817 | 81 | 327 | 0.0 | 0.0 | 0.00 | 0.00 | 0.00 | 77 | 1023.5 |
| 20260831150715 | 81 | 335 | 0.0 | 0.0 | 0.00 | 0.00 | 0.00 | 76 | 1023.6 |
| 20260831150616 | 81 | 355 | 0.0 | 0.0 | 0.00 | 0.00 | 0.00 | 76 | 1023.5 |
| 20260831150516 | 81 | 10 | 0.0 | 0.0 | 0.00 | 0.00 | 0.00 | 77 | 1023.6 |
| 20260831150416 | 81 | 311 | 0.0 | 0.0 | 0.00 | 0.00 | 0.00 | 76 | 1023.5 |
| 20260831150313 | 81 | 332 | 0.0 | 0.0 | 0.00 | 0.00 | 0.00 | 78 | 1023.5 |
| 20260831150213 | 81 | 32 | 0.0 | 0.0 | 0.00 | 0.00 | 0.00 | 76 | 1023.5 |
| 20260831150111 | 81 | 34 | 0.0 | 0.0 | 0.00 | 0.00 | 0.00 | 77 | 1023.5 |
| 20260831150013 | 81 | 0 | 0.0 | 0.0 | 0.00 | 0.00 | 0.00 | 76 | 1023.5 |
| 20260831145910 | 81 | 5 | 0.0 | 0.0 | 0.00 | 0.00 | 0.00 | 76 | 1023.6 |
| 20260831145801 | 81 | 0 | 0.0 | 0.0 | 0.00 | 0.00 | 0.00 | 77 | 1023.6 |
| 20260831145700 | 81 | 25 | 0.0 | 0.0 | 0.00 | 0.00 | 0.00 | 78 | 1023.6 |
| 20260831145600 | 81 | 32 | 0.0 | 0.0 | 0.00 | 0.00 | 0.00 | 75 | 1023.5 |
| 20260831145459 | 81 | 5 | 0.0 | 0.0 | 0.00 | 0.00 | 0.00 | 75 | 1023.5 |
| 20260831145400 | 81 | 320 | 0.0 | 0.0 | 0.00 | 0.00 | 0.00 | 74 | 1023.5 |
| 20260831145257 | 81 | 320 | 0.0 | 0.0 | 0.00 | 0.00 | 0.00 | 77 | 1023.5 |
| 20260831145158 | 81 | 10 | 0.0 | 0.0 | 0.00 | 0.00 | 0.00 | 76 | 1023.5 |
| 20260831145055 | 81 | 5 | 0.0 | 0.0 | 0.00 | 0.00 | 0.00 | 77 | 1023.5 |
| 20260831144956 | 81 | 355 | 0.0 | 0.0 | 0.00 | 0.00 | 0.00 | 78 | 1023.5 |
| 20260831144853 | 81 | 5 | 0.0 | 0.0 | 0.00 | 0.00 | 0.00 | 78 | 1023.6 |
| 20260831144754 | 81 | 5 | 0.0 | 0.0 | 0.00 | 0.00 | 0.00 | 78 | 1023.5 |
| 20260831144652 | 81 | 5 | 0.0 | 0.0 | 0.00 | 0.00 | 0.00 | 77 | 1023.3 |
| 20260831144550 | 80 | 5 | 0.0 | 0.0 | 0.00 | 0.00 | 0.00 | 77 | 1023.5 |
| 20260831144449 | 80 | 5 | 0.0 | 0.0 | 0.00 | 0.00 | 0.00 | 77 | 1023.5 |
| 20260831144348 | 80 | 5 | 0.0 | 0.0 | 0.00 | 0.00 | 0.00 | 78 | 1023.5 |
| 20260831144239 | 80 | 10 | 0.0 | 0.0 | 0.00 | 0.00 | 0.00 | 78 | 1023.5 |
| 20260831144137 | 80 | 11 | 0.0 | 0.0 | 0.00 | 0.00 | 0.00 | 78 | 1023.3 |
| 20260831144037 | 80 | 9 | 0.0 | 0.0 | 0.00 | 0.00 | 0.00 | 78 | 1023.5 |
| 20260831143939 | 80 | 337 | 0.0 | 0.0 | 0.00 | 0.00 | 0.00 | 77 | 1023.5 |
| 20260831143838 | 80 | 15 | 0.0 | 0.0 | 0.00 | 0.00 | 0.00 | 78 | 1023.5 |
| 20260831143737 | 80 | 14 | 0.0 | 0.0 | 0.00 | 0.00 | 0.00 | 77 | 1023.3 |
| 20260831143636 | 80 | 15 | 0.0 | 0.0 | 0.00 | 0.00 | 0.00 | 78 | 1023.3 |
| 20260831143535 | 80 | 15 | 0.0 | 0.0 | 0.00 | 0.00 | 0.00 | 78 | 1023.5 |
| 20260831143434 | 80 | 15 | 0.0 | 0.0 | 0.00 | 0.00 | 0.00 | 78 | 1023.3 |
| 20260831143332 | 80 | 327 | 0.0 | 0.0 | 0.00 | 0.00 | 0.00 | 78 | 1023.3 |
| 20260831143229 | 80 | 327 | 0.0 | 0.0 | 0.00 | 0.00 | 0.00 | 78 | 1023.3 |
| 20260831143130 | 80 | 330 | 0.0 | 0.0 | 0.00 | 0.00 | 0.00 | 78 | 1023.3 |
| 20260831143027 | 80 | 331 | 0.0 | 0.0 | 0.00 | 0.00 | 0.00 | 77 | 1023.3 |
| 20260831142929 | 80 | 340 | 0.0 | 0.0 | 0.00 | 0.00 | 0.00 | 77 | 1023.3 |
| 20260831142825 | 80 | 341 | 0.0 | 0.0 | 0.00 | 0.00 | 0.00 | 77 | 1023.3 |
| 20260831142719 | 80 | 341 | 0.0 | 0.0 | 0.00 | 0.00 | 0.00 | 78 | 1023.2 |
| 20260831142620 | 80 | 336 | 0.0 | 0.0 | 0.00 | 0.00 | 0.00 | 80 | 1023.3 |
| 20260831142520 | 80 | 319 | 0.0 | 0.0 | 0.00 | 0.00 | 0.00 | 79 | 1023.3 |
| 20260831142417 | 80 | 302 | 0.0 | 0.0 | 0.00 | 0.00 | 0.00 | 79 | 1023.3 |
| 20260831142316 | 80 | 301 | 0.0 | 0.0 | 0.00 | 0.00 | 0.00 | 78 | 1023.5 |
| 20260831142216 | 79 | 301 | 0.0 | 0.0 | 0.00 | 0.00 | 0.00 | 80 | 1023.2 |
| 20260831142113 | 79 | 301 | 0.0 | 0.0 | 0.00 | 0.00 | 0.00 | 80 | 1023.3 |
| 20260831142013 | 79 | 301 | 0.0 | 0.0 | 0.00 | 0.00 | 0.00 | 78 | 1023.3 |
| 20260831141912 | 79 | 301 | 0.0 | 0.0 | 0.00 | 0.00 | 0.00 | 79 | 1023.3 |
| 20260831141810 | 79 | 300 | 0.0 | 0.0 | 0.00 | 0.00 | 0.00 | 79 | 1023.3 |
| 20260831141703 | 79 | 300 | 0.0 | 0.0 | 0.00 | 0.00 | 0.00 | 78 | 1023.3 |
| 20260831141604 | 79 | 298 | 0.0 | 0.0 | 0.00 | 0.00 | 0.00 | 78 | 1023.2 |
| 20260831141504 | 79 | 301 | 0.0 | 0.0 | 0.00 | 0.00 | 0.00 | 80 | 1023.2 |
| 20260831141403 | 79 | 308 | 0.0 | 0.0 | 0.00 | 0.00 | 0.00 | 79 | 1023.3 |
| 20260831141304 | 79 | 309 | 0.0 | 0.0 | 0.00 | 0.00 | 0.00 | 79 | 1023.2 |
| 20260831141157 | 79 | 308 | 0.0 | 0.0 | 0.00 | 0.00 | 0.00 | 79 | 1023.2 |
| 20260831141058 | 79 | 328 | 0.0 | 0.0 | 0.00 | 0.00 | 0.00 | 79 | 1023.3 |
| 20260831140955 | 79 | 327 | 0.0 | 0.0 | 0.00 | 0.00 | 0.00 | 80 | 1023.2 |
| 20260831140856 | 79 | 327 | 0.0 | 0.0 | 0.00 | 0.00 | 0.00 | 80 | 1023.2 |
| 20260831140754 | 79 | 327 | 0.0 | 0.0 | 0.00 | 0.00 | 0.00 | 79 | 1023.2 |
| 20260831140651 | 79 | 327 | 0.0 | 0.0 | 0.00 | 0.00 | 0.00 | 79 | 1023.2 |
| 20260831140551 | 79 | 327 | 0.0 | 0.0 | 0.00 | 0.00 | 0.00 | 80 | 1023.2 |
| 20260831140451 | 79 | 329 | 0.0 | 0.0 | 0.00 | 0.00 | 0.00 | 80 | 1023.2 |
| 20260831140350 | 79 | 329 | 0.0 | 0.0 | 0.00 | 0.00 | 0.00 | 80 | 1023.2 |
| 20260831140248 | 79 | 287 | 0.0 | 0.0 | 0.00 | 0.00 | 0.00 | 80 | 1023.2 |
| 20260831140143 | 79 | 271 | 0.0 | 0.0 | 0.00 | 0.00 | 0.00 | 79 | 1023.2 |
| 20260831140044 | 79 | 296 | 0.0 | 0.0 | 0.00 | 0.00 | 0.00 | 80 | 1023.2 |
| 20260831135943 | 79 | 344 | 0.0 | 0.0 | 0.00 | 0.00 | 0.00 | 80 | 1023.2 |
| 20260831135844 | 79 | 310 | 0.0 | 0.0 | 0.00 | 0.00 | 0.00 | 81 | 1023.2 |
| 20260831135742 | 78 | 310 | 0.0 | 0.0 | 0.00 | 0.00 | 0.00 | 82 | 1023.1 |
| 20260831135635 | 78 | 311 | 0.0 | 0.0 | 0.00 | 0.00 | 0.00 | 82 | 1023.1 |
| 20260831135535 | 78 | 311 | 0.0 | 0.0 | 0.00 | 0.00 | 0.00 | 82 | 1023.2 |
| 20260831135436 | 78 | 311 | 0.0 | 0.0 | 0.00 | 0.00 | 0.00 | 81 | 1023.2 |
| 20260831135334 | 78 | 311 | 0.0 | 0.0 | 0.00 | 0.00 | 0.00 | 82 | 1023.2 |
| 20260831135231 | 78 | 311 | 0.0 | 0.0 | 0.00 | 0.00 | 0.00 | 82 | 1023.2 |
| 20260831135132 | 78 | 311 | 0.0 | 0.0 | 0.00 | 0.00 | 0.00 | 83 | 1023.2 |
| 20260831135029 | 78 | 311 | 0.0 | 0.0 | 0.00 | 0.00 | 0.00 | 82 | 1023.2 |
| 20260831134928 | 78 | 311 | 0.0 | 0.0 | 0.00 | 0.00 | 0.00 | 81 | 1023.3 |
| 20260831134828 | 78 | 311 | 0.0 | 0.0 | 0.00 | 0.00 | 0.00 | 82 | 1023.3 |
| 20260831134725 | 78 | 311 | 0.0 | 0.0 | 0.00 | 0.00 | 0.00 | 82 | 1023.2 |
| 20260831134625 | 78 | 311 | 0.0 | 0.0 | 0.00 | 0.00 | 0.00 | 82 | 1023.2 |
| 20260831134523 | 78 | 311 | 0.0 | 0.0 | 0.00 | 0.00 | 0.00 | 83 | 1023.3 |
| 20260831134420 | 78 | 311 | 0.0 | 0.0 | 0.00 | 0.00 | 0.00 | 83 | 1023.3 |
| 20260831134322 | 78 | 311 | 0.0 | 0.0 | 0.00 | 0.00 | 0.00 | 83 | 1023.2 |
| 20260831134220 | 77 | 312 | 0.0 | 0.0 | 0.00 | 0.00 | 0.00 | 83 | 1023.3 |
| 20260831134109 | 77 | 312 | 0.0 | 0.0 | 0.00 | 0.00 | 0.00 | 83 | 1023.2 |
| 20260831134010 | 77 | 311 | 0.0 | 0.0 | 0.00 | 0.00 | 0.00 | 84 | 1023.2 |
| 20260831133910 | 77 | 312 | 0.0 | 0.0 | 0.00 | 0.00 | 0.00 | 83 | 1023.2 |
| 20260831133809 | 77 | 312 | 0.0 | 0.0 | 0.00 | 0.00 | 0.00 | 83 | 1023.3 |
| 20260831133710 | 77 | 311 | 0.0 | 0.0 | 0.00 | 0.00 | 0.00 | 83 | 1023.2 |
| 20260831133603 | 77 | 299 | 0.0 | 0.0 | 0.00 | 0.00 | 0.00 | 84 | 1023.3 |
| 20260831133503 | 77 | 300 | 0.0 | 0.0 | 0.00 | 0.00 | 0.00 | 84 | 1023.2 |
| 20260831133403 | 77 | 300 | 0.0 | 0.0 | 0.00 | 0.00 | 0.00 | 84 | 1023.3 |
| 20260831133303 | 77 | 288 | 0.0 | 0.0 | 0.00 | 0.00 | 0.00 | 84 | 1023.2 |
| 20260831133204 | 77 | 277 | 0.0 | 0.0 | 0.00 | 0.00 | 0.00 | 84 | 1023.3 |
| 20260831133059 | 77 | 278 | 0.0 | 0.0 | 0.00 | 0.00 | 0.00 | 85 | 1023.3 |
| 20260831132959 | 77 | 298 | 0.0 | 0.0 | 0.00 | 0.00 | 0.00 | 85 | 1023.3 |
| 20260831132858 | 77 | 297 | 0.0 | 0.0 | 0.00 | 0.00 | 0.00 | 85 | 1023.3 |
| 20260831132800 | 76 | 297 | 0.0 | 0.0 | 0.00 | 0.00 | 0.00 | 85 | 1023.3 |
| 20260831132658 | 76 | 296 | 0.0 | 0.0 | 0.00 | 0.00 | 0.00 | 85 | 1023.2 |
| 20260831132549 | 76 | 296 | 0.0 | 0.0 | 0.00 | 0.00 | 0.00 | 85 | 1023.3 |
| 20260831132449 | 76 | 296 | 0.0 | 0.0 | 0.00 | 0.00 | 0.00 | 85 | 1023.2 |
| 20260831132347 | 76 | 283 | 0.0 | 0.0 | 0.00 | 0.00 | 0.00 | 85 | 1023.2 |
| 20260831132247 | 76 | 296 | 0.0 | 0.0 | 0.00 | 0.00 | 0.00 | 85 | 1023.3 |
| 20260831132148 | 76 | 283 | 0.0 | 0.0 | 0.00 | 0.00 | 0.00 | 85 | 1023.3 |
| 20260831132048 | 76 | 281 | 0.0 | 0.0 | 0.00 | 0.00 | 0.00 | 85 | 1023.3 |
| 20260831131945 | 76 | 279 | 0.0 | 0.0 | 0.00 | 0.00 | 0.00 | 86 | 1023.3 |
| 20260831131843 | 76 | 281 | 0.0 | 0.0 | 0.00 | 0.00 | 0.00 | 86 | 1023.3 |
| 20260831131744 | 76 | 309 | 0.0 | 0.0 | 0.00 | 0.00 | 0.00 | 86 | 1023.5 |
| 20260831131642 | 76 | 309 | 0.0 | 0.0 | 0.00 | 0.00 | 0.00 | 86 | 1023.5 |
| 20260831131538 | 76 | 304 | 0.0 | 0.0 | 0.00 | 0.00 | 0.00 | 86 | 1023.3 |
| 20260831131438 | 76 | 295 | 0.0 | 0.0 | 0.00 | 0.00 | 0.00 | 86 | 1023.3 |
| 20260831131337 | 76 | 303 | 0.0 | 0.0 | 0.00 | 0.00 | 0.00 | 86 | 1023.3 |
| 20260831131238 | 76 | 316 | 0.0 | 0.0 | 0.00 | 0.00 | 0.00 | 86 | 1023.3 |
| 20260831131135 | 76 | 326 | 0.0 | 0.0 | 0.00 | 0.00 | 0.00 | 86 | 1023.3 |
| 20260831131029 | 76 | 286 | 0.0 | 0.0 | 0.00 | 0.00 | 0.00 | 86 | 1023.2 |
| 20260831130929 | 76 | 286 | 0.0 | 0.0 | 0.00 | 0.00 | 0.00 | 87 | 1023.2 |
| 20260831130828 | 76 | 287 | 0.0 | 0.0 | 0.00 | 0.00 | 0.00 | 87 | 1023.2 |
| 20260831130728 | 75 | 287 | 0.0 | 0.0 | 0.00 | 0.00 | 0.00 | 86 | 1023.2 |
| 20260831130626 | 75 | 287 | 0.0 | 0.0 | 0.00 | 0.00 | 0.00 | 86 | 1023.2 |
| 20260831130521 | 75 | 286 | 0.0 | 0.0 | 0.00 | 0.00 | 0.00 | 87 | 1023.3 |
| 20260831130420 | 75 | 286 | 0.0 | 0.0 | 0.00 | 0.00 | 0.00 | 87 | 1023.2 |
| 20260831130321 | 75 | 285 | 0.0 | 0.0 | 0.00 | 0.00 | 0.00 | 87 | 1023.2 |
| 20260831130222 | 75 | 285 | 0.0 | 0.0 | 0.00 | 0.00 | 0.00 | 87 | 1023.2 |
| 20260831130120 | 75 | 285 | 0.0 | 0.0 | 0.00 | 0.00 | 0.00 | 87 | 1023.2 |
| 20260831130016 | 75 | 285 | 0.0 | 0.0 | 0.00 | 0.00 | 0.00 | 87 | 1023.3 |
| 20260831125912 | 75 | 285 | 0.0 | 0.0 | 0.00 | 0.00 | 0.00 | 88 | 1023.3 |
| 20260831125814 | 75 | 327 | 0.0 | 0.0 | 0.00 | 0.00 | 0.00 | 88 | 1023.2 |
| 20260831125714 | 75 | 292 | 0.0 | 0.0 | 0.00 | 0.00 | 0.00 | 87 | 1023.2 |
| 20260831125614 | 75 | 292 | 0.0 | 0.0 | 0.00 | 0.00 | 0.00 | 87 | 1023.2 |
| 20260831125506 | 75 | 292 | 0.0 | 0.0 | 0.00 | 0.00 | 0.00 | 87 | 1023.2 |
| 20260831125403 | 75 | 290 | 0.0 | 0.0 | 0.00 | 0.00 | 0.00 | 87 | 1023.2 |
| 20260831125306 | 75 | 290 | 0.0 | 0.0 | 0.00 | 0.00 | 0.00 | 87 | 1023.1 |
| 20260831125203 | 75 | 292 | 0.0 | 0.0 | 0.00 | 0.00 | 0.00 | 87 | 1023.2 |
| 20260831125104 | 75 | 292 | 0.0 | 0.0 | 0.00 | 0.00 | 0.00 | 87 | 1023.2 |
| 20260831124959 | 74 | 257 | 0.0 | 0.0 | 0.00 | 0.00 | 0.00 | 88 | 1023.1 |
| 20260831124858 | 74 | 311 | 0.0 | 0.0 | 0.00 | 0.00 | 0.00 | 88 | 1023.2 |
| 20260831124800 | 74 | 315 | 0.0 | 0.0 | 0.00 | 0.00 | 0.00 | 88 | 1023.2 |
| 20260831124659 | 74 | 319 | 0.0 | 0.0 | 0.00 | 0.00 | 0.00 | 88 | 1023.1 |
| 20260831124557 | 74 | 320 | 0.0 | 0.0 | 0.00 | 0.00 | 0.00 | 88 | 1023.3 |
| 20260831124458 | 74 | 315 | 0.0 | 0.0 | 0.00 | 0.00 | 0.00 | 89 | 1023.1 |
| 20260831124356 | 74 | 317 | 0.0 | 0.0 | 0.00 | 0.00 | 0.00 | 88 | 1023.2 |
| 20260831124255 | 74 | 317 | 0.0 | 0.0 | 0.00 | 0.00 | 0.00 | 88 | 1023.2 |
| 20260831124153 | 74 | 315 | 0.0 | 0.0 | 0.00 | 0.00 | 0.00 | 88 | 1023.3 |
| 20260831124051 | 74 | 355 | 0.0 | 0.0 | 0.00 | 0.00 | 0.00 | 88 | 1023.2 |
| 20260831123943 | 74 | 300 | 0.0 | 0.0 | 0.00 | 0.00 | 0.00 | 88 | 1023.2 |
| 20260831123842 | 74 | 248 | 0.0 | 0.0 | 0.00 | 0.00 | 0.00 | 88 | 1023.2 |
| 20260831123744 | 74 | 300 | 0.0 | 0.0 | 0.00 | 0.00 | 0.00 | 88 | 1023.2 |
| 20260831123642 | 74 | 301 | 0.0 | 0.0 | 0.00 | 0.00 | 0.00 | 88 | 1023.2 |
| 20260831123542 | 74 | 279 | 0.0 | 0.0 | 0.00 | 0.00 | 0.00 | 88 | 1023.2 |
| 20260831123438 | 74 | 300 | 0.0 | 0.0 | 0.00 | 0.00 | 0.00 | 88 | 1023.1 |
| 20260831123338 | 74 | 270 | 0.0 | 0.0 | 0.00 | 0.00 | 0.00 | 89 | 1023.1 |
| 20260831123236 | 74 | 279 | 0.0 | 0.0 | 0.00 | 0.00 | 0.00 | 89 | 1023.0 |
| 20260831123138 | 74 | 279 | 0.0 | 0.0 | 0.00 | 0.00 | 0.00 | 89 | 1023.0 |
| 20260831123036 | 74 | 279 | 0.0 | 0.0 | 0.00 | 0.00 | 0.00 | 89 | 1023.0 |
| 20260831122933 | 74 | 303 | 0.0 | 0.0 | 0.00 | 0.00 | 0.00 | 89 | 1023.0 |
| 20260831122833 | 73 | 280 | 0.0 | 0.0 | 0.00 | 0.00 | 0.00 | 89 | 1023.0 |
| 20260831122732 | 73 | 284 | 0.0 | 0.0 | 0.00 | 0.00 | 0.00 | 89 | 1022.9 |
| 20260831122632 | 73 | 281 | 0.0 | 0.0 | 0.00 | 0.00 | 0.00 | 89 | 1023.0 |
| 20260831122529 | 73 | 282 | 0.0 | 0.0 | 0.00 | 0.00 | 0.00 | 89 | 1023.0 |
| 20260831122422 | 73 | 290 | 0.0 | 0.0 | 0.00 | 0.00 | 0.00 | 89 | 1023.0 |
| 20260831122320 | 73 | 281 | 0.0 | 0.0 | 0.00 | 0.00 | 0.00 | 89 | 1023.0 |
| 20260831122219 | 73 | 290 | 0.0 | 0.0 | 0.00 | 0.00 | 0.00 | 89 | 1023.0 |
| 20260831122119 | 73 | 296 | 0.0 | 0.0 | 0.00 | 0.00 | 0.00 | 89 | 1023.0 |
| 20260831122019 | 73 | 276 | 0.0 | 0.0 | 0.00 | 0.00 | 0.00 | 89 | 1023.0 |
| 20260831121915 | 73 | 276 | 0.0 | 0.0 | 0.00 | 0.00 | 0.00 | 89 | 1022.9 |
| 20260831121813 | 73 | 276 | 0.0 | 0.0 | 0.00 | 0.00 | 0.00 | 89 | 1022.9 |
| 20260831121714 | 73 | 276 | 0.0 | 0.0 | 0.00 | 0.00 | 0.00 | 89 | 1022.9 |
| 20260831121612 | 73 | 274 | 0.0 | 0.0 | 0.00 | 0.00 | 0.00 | 90 | 1023.0 |
| 20260831121514 | 73 | 272 | 0.0 | 0.0 | 0.00 | 0.00 | 0.00 | 90 | 1022.9 |
| 20260831121406 | 73 | 271 | 0.0 | 0.0 | 0.00 | 0.00 | 0.00 | 90 | 1023.0 |
| 20260831121308 | 73 | 270 | 0.0 | 0.0 | 0.00 | 0.00 | 0.00 | 90 | 1022.9 |
| 20260831121208 | 73 | 295 | 0.0 | 0.0 | 0.00 | 0.00 | 0.00 | 90 | 1022.9 |
| 20260831121108 | 73 | 301 | 0.0 | 0.0 | 0.00 | 0.00 | 0.00 | 90 | 1022.9 |
| 20260831121007 | 73 | 315 | 0.0 | 0.0 | 0.00 | 0.00 | 0.00 | 90 | 1022.9 |
| 20260831120859 | 72 | 319 | 0.0 | 0.0 | 0.00 | 0.00 | 0.00 | 90 | 1022.8 |
| 20260831120759 | 72 | 295 | 0.0 | 0.0 | 0.00 | 0.00 | 0.00 | 90 | 1022.8 |
| 20260831120659 | 72 | 277 | 0.0 | 0.0 | 0.00 | 0.00 | 0.00 | 90 | 1022.8 |
| 20260831120600 | 72 | 290 | 0.0 | 0.0 | 0.00 | 0.00 | 0.00 | 90 | 1022.8 |
| 20260831120457 | 72 | 287 | 0.0 | 0.0 | 0.00 | 0.00 | 0.00 | 90 | 1022.7 |
| 20260831120356 | 72 | 264 | 0.0 | 0.0 | 0.00 | 0.00 | 0.00 | 91 | 1022.9 |
| 20260831120256 | 72 | 300 | 0.0 | 0.0 | 0.00 | 0.00 | 0.00 | 91 | 1022.8 |
| 20260831120152 | 72 | 302 | 0.0 | 0.0 | 0.00 | 0.00 | 0.00 | 91 | 1022.9 |
| 20260831120054 | 72 | 300 | 0.0 | 0.0 | 0.00 | 0.00 | 0.00 | 91 | 1022.8 |
| 20260831115952 | 72 | 296 | 0.0 | 0.0 | 0.00 | 0.00 | 0.00 | 91 | 1022.9 |
| 20260831115852 | 72 | 296 | 0.0 | 0.0 | 0.00 | 0.00 | 0.00 | 91 | 1022.8 |
| 20260831115749 | 72 | 296 | 0.0 | 0.0 | 0.00 | 0.00 | 0.00 | 91 | 1022.8 |
| 20260831115649 | 72 | 269 | 0.0 | 0.0 | 0.00 | 0.00 | 0.00 | 91 | 1022.8 |
| 20260831115548 | 72 | 286 | 0.0 | 0.0 | 0.00 | 0.00 | 0.00 | 91 | 1022.9 |
| 20260831115446 | 72 | 279 | 0.0 | 0.0 | 0.00 | 0.00 | 0.00 | 91 | 1022.8 |
| 20260831115340 | 72 | 280 | 0.0 | 0.0 | 0.00 | 0.00 | 0.00 | 91 | 1022.8 |
| 20260831115239 | 72 | 286 | 0.0 | 0.0 | 0.00 | 0.00 | 0.00 | 91 | 1022.8 |
| 20260831115137 | 72 | 277 | 0.0 | 0.0 | 0.00 | 0.00 | 0.00 | 91 | 1022.8 |
| 20260831115038 | 71 | 238 | 0.0 | 0.0 | 0.00 | 0.00 | 0.00 | 92 | 1022.7 |
| 20260831114935 | 71 | 325 | 0.0 | 0.0 | 0.00 | 0.00 | 0.00 | 92 | 1022.8 |
| 20260831114830 | 71 | 294 | 0.0 | 0.0 | 0.00 | 0.00 | 0.00 | 92 | 1022.8 |
| 20260831114731 | 71 | 299 | 0.0 | 0.0 | 0.00 | 0.00 | 0.00 | 92 | 1022.8 |
| 20260831114631 | 71 | 299 | 0.0 | 0.0 | 0.00 | 0.00 | 0.00 | 92 | 1022.7 |
| 20260831114532 | 71 | 299 | 0.0 | 0.0 | 0.00 | 0.00 | 0.00 | 92 | 1022.8 |
| 20260831114429 | 71 | 299 | 0.0 | 0.0 | 0.00 | 0.00 | 0.00 | 92 | 1022.8 |
| 20260831114329 | 71 | 294 | 0.0 | 0.0 | 0.00 | 0.00 | 0.00 | 92 | 1022.8 |
| 20260831114228 | 71 | 295 | 0.0 | 0.0 | 0.00 | 0.00 | 0.00 | 92 | 1022.8 |
| 20260831114127 | 71 | 295 | 0.0 | 0.0 | 0.00 | 0.00 | 0.00 | 92 | 1022.8 |
| 20260831114026 | 71 | 292 | 0.0 | 0.0 | 0.00 | 0.00 | 0.00 | 92 | 1022.8 |
| 20260831113924 | 71 | 292 | 0.0 | 0.0 | 0.00 | 0.00 | 0.00 | 92 | 1022.7 |
| 20260831113818 | 71 | 291 | 0.0 | 0.0 | 0.00 | 0.00 | 0.00 | 92 | 1022.8 |
| 20260831113717 | 71 | 301 | 0.0 | 0.0 | 0.00 | 0.00 | 0.00 | 92 | 1022.8 |
| 20260831113616 | 71 | 248 | 0.0 | 0.0 | 0.00 | 0.00 | 0.00 | 93 | 1022.8 |
| 20260831113515 | 71 | 249 | 0.0 | 0.0 | 0.00 | 0.00 | 0.00 | 93 | 1022.8 |
| 20260831113413 | 71 | 260 | 0.0 | 0.0 | 0.00 | 0.00 | 0.00 | 93 | 1022.7 |
| 20260831113308 | 71 | 259 | 0.0 | 0.0 | 0.00 | 0.00 | 0.00 | 93 | 1022.7 |
| 20260831113206 | 71 | 15 | 0.0 | 0.0 | 0.00 | 0.00 | 0.00 | 93 | 1022.8 |
| 20260831113107 | 71 | 15 | 0.0 | 0.0 | 0.00 | 0.00 | 0.00 | 93 | 1022.8 |
| 20260831113006 | 71 | 10 | 0.0 | 0.0 | 0.00 | 0.00 | 0.00 | 93 | 1022.8 |
| 20260831112908 | 70 | 348 | 0.0 | 0.0 | 0.00 | 0.00 | 0.00 | 93 | 1022.8 |
| 20260831112802 | 70 | 342 | 0.0 | 0.0 | 0.00 | 0.00 | 0.00 | 93 | 1022.8 |
| 20260831112700 | 70 | 327 | 0.0 | 0.0 | 0.00 | 0.00 | 0.00 | 93 | 1022.8 |
| 20260831112602 | 70 | 325 | 0.0 | 0.0 | 0.00 | 0.00 | 0.00 | 93 | 1022.8 |
| 20260831112500 | 70 | 323 | 0.0 | 0.0 | 0.00 | 0.00 | 0.00 | 93 | 1022.8 |
| 20260831112401 | 70 | 321 | 0.0 | 0.0 | 0.00 | 0.00 | 0.00 | 93 | 1022.9 |
| 20260831112253 | 70 | 0 | 0.0 | 0.0 | 0.00 | 0.00 | 0.00 | 93 | 1022.8 |
| 20260831112152 | 70 | 226 | 0.0 | 0.0 | 0.00 | 0.00 | 0.00 | 93 | 1022.8 |
| 20260831112051 | 70 | 236 | 0.0 | 0.0 | 0.00 | 0.00 | 0.00 | 93 | 1022.8 |
| 20260831111951 | 70 | 277 | 0.0 | 0.0 | 0.00 | 0.00 | 0.00 | 93 | 1022.7 |
| 20260831111853 | 70 | 279 | 0.0 | 0.0 | 0.00 | 0.00 | 0.00 | 93 | 1022.8 |
| 20260831111747 | 70 | 280 | 0.0 | 0.0 | 0.00 | 0.00 | 0.00 | 93 | 1022.8 |
| 20260831111647 | 70 | 279 | 0.0 | 0.0 | 0.00 | 0.00 | 0.00 | 93 | 1022.7 |
| 20260831111548 | 70 | 280 | 0.0 | 0.0 | 0.00 | 0.00 | 0.00 | 93 | 1022.7 |
| 20260831111446 | 70 | 279 | 0.0 | 0.0 | 0.00 | 0.00 | 0.00 | 93 | 1022.7 |
| 20260831111345 | 70 | 278 | 0.0 | 0.0 | 0.00 | 0.00 | 0.00 | 93 | 1022.7 |
| 20260831111243 | 70 | 255 | 0.0 | 0.0 | 0.00 | 0.00 | 0.00 | 93 | 1022.7 |
| 20260831111143 | 70 | 238 | 0.0 | 0.0 | 0.00 | 0.00 | 0.00 | 93 | 1022.7 |
| 20260831111043 | 70 | 246 | 0.0 | 0.0 | 0.00 | 0.00 | 0.00 | 93 | 1022.7 |
| 20260831110942 | 70 | 246 | 0.0 | 0.0 | 0.00 | 0.00 | 0.00 | 93 | 1022.7 |
| 20260831110840 | 70 | 245 | 0.0 | 0.0 | 0.00 | 0.00 | 0.00 | 93 | 1022.6 |
| 20260831110734 | 70 | 246 | 0.0 | 0.0 | 0.00 | 0.00 | 0.00 | 93 | 1022.6 |
| 20260831110633 | 70 | 163 | 0.0 | 0.0 | 0.00 | 0.00 | 0.00 | 93 | 1022.6 |
| 20260831110534 | 70 | 163 | 0.0 | 0.0 | 0.00 | 0.00 | 0.00 | 93 | 1022.6 |
| 20260831110431 | 70 | 163 | 0.0 | 0.0 | 0.00 | 0.00 | 0.00 | 93 | 1022.5 |
| 20260831110330 | 70 | 163 | 0.0 | 0.0 | 0.00 | 0.00 | 0.00 | 93 | 1022.6 |
| 20260831110230 | 70 | 163 | 0.0 | 0.0 | 0.00 | 0.00 | 0.00 | 93 | 1022.5 |
| 20260831110127 | 70 | 163 | 0.0 | 0.0 | 0.00 | 0.00 | 0.00 | 93 | 1022.6 |
| 20260831110028 | 70 | 163 | 0.0 | 0.0 | 0.00 | 0.00 | 0.00 | 93 | 1022.5 |
| 20260831105925 | 70 | 164 | 0.0 | 0.0 | 0.00 | 0.00 | 0.00 | 93 | 1022.5 |
| 20260831105823 | 70 | 165 | 0.0 | 0.0 | 0.00 | 0.00 | 0.00 | 93 | 1022.5 |
| 20260831105720 | 70 | 165 | 0.0 | 0.0 | 0.00 | 0.00 | 0.00 | 93 | 1022.5 |
| 20260831105617 | 70 | 165 | 0.0 | 0.0 | 0.00 | 0.00 | 0.00 | 93 | 1022.5 |
| 20260831105518 | 70 | 182 | 0.0 | 0.0 | 0.00 | 0.00 | 0.00 | 93 | 1022.5 |
| 20260831105418 | 70 | 183 | 0.0 | 0.0 | 0.00 | 0.00 | 0.00 | 93 | 1022.4 |
| 20260831105318 | 70 | 182 | 0.0 | 0.0 | 0.00 | 0.00 | 0.00 | 93 | 1022.5 |
| 20260831105210 | 70 | 182 | 0.0 | 0.0 | 0.00 | 0.00 | 0.00 | 93 | 1022.5 |
| 20260831105107 | 70 | 183 | 0.0 | 0.0 | 0.00 | 0.00 | 0.00 | 93 | 1022.5 |
| 20260831105007 | 70 | 183 | 0.0 | 0.0 | 0.00 | 0.00 | 0.00 | 93 | 1022.4 |
| 20260831104907 | 70 | 183 | 0.0 | 0.0 | 0.00 | 0.00 | 0.00 | 93 | 1022.5 |
| 20260831104808 | 70 | 183 | 0.0 | 0.0 | 0.00 | 0.00 | 0.00 | 93 | 1022.5 |
| 20260831104703 | 70 | 183 | 0.0 | 0.0 | 0.00 | 0.00 | 0.00 | 93 | 1022.4 |
| 20260831104600 | 70 | 182 | 0.0 | 0.0 | 0.00 | 0.00 | 0.00 | 93 | 1022.5 |
| 20260831104501 | 70 | 182 | 0.0 | 0.0 | 0.00 | 0.00 | 0.00 | 93 | 1022.4 |
| 20260831104401 | 70 | 182 | 0.0 | 0.0 | 0.00 | 0.00 | 0.00 | 93 | 1022.4 |
| 20260831104302 | 70 | 182 | 0.0 | 0.0 | 0.00 | 0.00 | 0.00 | 93 | 1022.4 |
| 20260831104158 | 70 | 182 | 0.0 | 0.0 | 0.00 | 0.00 | 0.00 | 93 | 1022.4 |
| 20260831104056 | 70 | 183 | 0.0 | 0.0 | 0.00 | 0.00 | 0.00 | 93 | 1022.4 |
| 20260831103957 | 70 | 185 | 0.0 | 0.0 | 0.00 | 0.00 | 0.00 | 93 | 1022.4 |
| 20260831103858 | 70 | 173 | 0.0 | 0.0 | 0.00 | 0.00 | 0.00 | 93 | 1022.4 |
| 20260831103755 | 70 | 173 | 0.0 | 0.0 | 0.00 | 0.00 | 0.00 | 93 | 1022.4 |
| 20260831103649 | 70 | 181 | 0.0 | 0.0 | 0.00 | 0.00 | 0.00 | 93 | 1022.3 |
| 20260831103549 | 70 | 181 | 0.0 | 0.0 | 0.00 | 0.00 | 0.00 | 93 | 1022.3 |
| 20260831103448 | 70 | 182 | 0.0 | 0.0 | 0.00 | 0.00 | 0.00 | 93 | 1022.3 |
| 20260831103348 | 70 | 181 | 0.0 | 0.0 | 0.00 | 0.00 | 0.00 | 93 | 1022.3 |
| 20260831103246 | 70 | 182 | 0.0 | 0.0 | 0.00 | 0.00 | 0.00 | 93 | 1022.3 |
| 20260831103142 | 70 | 182 | 0.0 | 0.0 | 0.00 | 0.00 | 0.00 | 93 | 1022.3 |
| 20260831103044 | 70 | 181 | 0.0 | 0.0 | 0.00 | 0.00 | 0.00 | 93 | 1022.2 |
| 20260831102943 | 70 | 181 | 0.0 | 0.0 | 0.00 | 0.00 | 0.00 | 93 | 1022.3 |
| 20260831102842 | 70 | 181 | 0.0 | 0.0 | 0.00 | 0.00 | 0.00 | 93 | 1022.2 |
| 20260831102739 | 70 | 182 | 0.0 | 0.0 | 0.00 | 0.00 | 0.00 | 93 | 1022.2 |
| 20260831102636 | 70 | 182 | 0.0 | 0.0 | 0.00 | 0.00 | 0.00 | 93 | 1022.2 |
| 20260831102533 | 70 | 182 | 0.0 | 0.0 | 0.00 | 0.00 | 0.00 | 93 | 1022.2 |
| 20260831102434 | 69 | 183 | 0.0 | 0.0 | 0.00 | 0.00 | 0.00 | 93 | 1022.2 |
| 20260831102334 | 70 | 181 | 0.0 | 0.0 | 0.00 | 0.00 | 0.00 | 93 | 1022.2 |
| 20260831102234 | 69 | 182 | 0.0 | 0.0 | 0.00 | 0.00 | 0.00 | 93 | 1022.2 |
| 20260831102128 | 69 | 182 | 0.0 | 0.0 | 0.00 | 0.00 | 0.00 | 93 | 1022.2 |
| 20260831102027 | 69 | 182 | 0.0 | 0.0 | 0.00 | 0.00 | 0.00 | 93 | 1022.2 |
| 20260831101926 | 69 | 183 | 0.0 | 0.0 | 0.00 | 0.00 | 0.00 | 93 | 1022.2 |
| 20260831101826 | 69 | 182 | 0.0 | 0.0 | 0.00 | 0.00 | 0.00 | 93 | 1022.2 |
| 20260831101724 | 69 | 182 | 0.0 | 0.0 | 0.00 | 0.00 | 0.00 | 93 | 1022.3 |
| 20260831101622 | 69 | 185 | 0.0 | 0.0 | 0.00 | 0.00 | 0.00 | 93 | 1022.3 |
| 20260831101521 | 69 | 185 | 0.0 | 0.0 | 0.00 | 0.00 | 0.00 | 93 | 1022.2 |
| 20260831101422 | 69 | 184 | 0.0 | 0.0 | 0.00 | 0.00 | 0.00 | 93 | 1022.1 |
| 20260831101320 | 69 | 184 | 0.0 | 0.0 | 0.00 | 0.00 | 0.00 | 93 | 1022.2 |
| 20260831101217 | 69 | 184 | 0.0 | 0.0 | 0.00 | 0.00 | 0.00 | 93 | 1022.2 |
| 20260831101118 | 69 | 184 | 0.0 | 0.0 | 0.00 | 0.00 | 0.00 | 93 | 1022.3 |
| 20260831101015 | 69 | 184 | 0.0 | 0.0 | 0.00 | 0.00 | 0.00 | 93 | 1022.2 |
| 20260831100915 | 69 | 184 | 0.0 | 0.0 | 0.00 | 0.00 | 0.00 | 93 | 1022.2 |
| 20260831100813 | 69 | 184 | 0.0 | 0.0 | 0.00 | 0.00 | 0.00 | 93 | 1022.2 |
| 20260831100712 | 69 | 184 | 0.0 | 0.0 | 0.00 | 0.00 | 0.00 | 93 | 1022.1 |
| 20260831100601 | 69 | 184 | 0.0 | 0.0 | 0.00 | 0.00 | 0.00 | 93 | 1022.2 |
| 20260831100501 | 69 | 188 | 0.0 | 0.0 | 0.00 | 0.00 | 0.00 | 93 | 1022.2 |
| 20260831100402 | 69 | 188 | 0.0 | 0.0 | 0.00 | 0.00 | 0.00 | 93 | 1022.1 |
| 20260831100302 | 69 | 188 | 0.0 | 0.0 | 0.00 | 0.00 | 0.00 | 93 | 1022.1 |
| 20260831100201 | 69 | 188 | 0.0 | 0.0 | 0.00 | 0.00 | 0.00 | 93 | 1022.1 |
| 20260831100059 | 69 | 188 | 0.0 | 0.0 | 0.00 | 0.00 | 0.00 | 93 | 1022.2 |
| 20260831095959 | 69 | 188 | 0.0 | 0.0 | 0.00 | 0.00 | 0.00 | 93 | 1022.1 |
| 20260831095858 | 69 | 188 | 0.0 | 0.0 | 0.00 | 0.00 | 0.00 | 93 | 1022.1 |
| 20260831095757 | 69 | 188 | 0.0 | 0.0 | 0.00 | 0.00 | 0.00 | 93 | 1022.1 |
| 20260831095656 | 69 | 188 | 0.0 | 0.0 | 0.00 | 0.00 | 0.00 | 93 | 1022.1 |
| 20260831095554 | 69 | 188 | 0.0 | 0.0 | 0.00 | 0.00 | 0.00 | 93 | 1022.0 |
| 20260831095454 | 69 | 188 | 0.0 | 0.0 | 0.00 | 0.00 | 0.00 | 93 | 1022.0 |
| 20260831095352 | 69 | 188 | 0.0 | 0.0 | 0.00 | 0.00 | 0.00 | 93 | 1022.0 |
| 20260831095252 | 69 | 188 | 0.0 | 0.0 | 0.00 | 0.00 | 0.00 | 93 | 1022.0 |
| 20260831095150 | 69 | 188 | 0.0 | 0.0 | 0.00 | 0.00 | 0.00 | 93 | 1022.1 |
| 20260831095041 | 69 | 189 | 0.0 | 0.0 | 0.00 | 0.00 | 0.00 | 93 | 1022.0 |
| 20260831094939 | 69 | 188 | 0.0 | 0.0 | 0.00 | 0.00 | 0.00 | 93 | 1021.9 |
| 20260831094840 | 69 | 189 | 0.0 | 0.0 | 0.00 | 0.00 | 0.00 | 93 | 1022.0 |
| 20260831094739 | 69 | 189 | 0.0 | 0.0 | 0.00 | 0.00 | 0.00 | 93 | 1022.0 |
| 20260831094639 | 69 | 188 | 0.0 | 0.0 | 0.00 | 0.00 | 0.00 | 93 | 1021.9 |
| 20260831094540 | 69 | 189 | 0.0 | 0.0 | 0.00 | 0.00 | 0.00 | 93 | 1022.0 |
| 20260831094438 | 69 | 189 | 0.0 | 0.0 | 0.00 | 0.00 | 0.00 | 93 | 1022.0 |
| 20260831094337 | 69 | 188 | 0.0 | 0.0 | 0.00 | 0.00 | 0.00 | 93 | 1021.9 |
| 20260831094236 | 69 | 188 | 0.0 | 0.0 | 0.00 | 0.00 | 0.00 | 93 | 1021.9 |
| 20260831094134 | 69 | 188 | 0.0 | 0.0 | 0.00 | 0.00 | 0.00 | 93 | 1021.9 |
| 20260831094029 | 69 | 188 | 0.0 | 0.0 | 0.00 | 0.00 | 0.00 | 93 | 1021.9 |
| 20260831093926 | 69 | 188 | 0.0 | 0.0 | 0.00 | 0.00 | 0.00 | 93 | 1021.9 |
| 20260831093827 | 69 | 189 | 0.0 | 0.0 | 0.00 | 0.00 | 0.00 | 93 | 1021.9 |
| 20260831093725 | 69 | 188 | 0.0 | 0.0 | 0.00 | 0.00 | 0.00 | 93 | 1021.9 |
| 20260831093626 | 69 | 189 | 0.0 | 0.0 | 0.00 | 0.00 | 0.00 | 93 | 1021.7 |
| 20260831093522 | 69 | 188 | 0.0 | 0.0 | 0.00 | 0.00 | 0.00 | 93 | 1021.9 |
| 20260831093418 | 69 | 188 | 0.0 | 0.0 | 0.00 | 0.00 | 0.00 | 93 | 1022.0 |
| 20260831093320 | 69 | 188 | 0.0 | 0.0 | 0.00 | 0.00 | 0.00 | 93 | 1022.0 |
| 20260831093218 | 69 | 189 | 0.0 | 0.0 | 0.00 | 0.00 | 0.00 | 93 | 1022.0 |
| 20260831093116 | 69 | 190 | 0.0 | 0.0 | 0.00 | 0.00 | 0.00 | 93 | 1022.0 |
| 20260831093012 | 69 | 190 | 0.0 | 0.0 | 0.00 | 0.00 | 0.00 | 93 | 1022.0 |
| 20260831092908 | 69 | 189 | 0.0 | 0.0 | 0.00 | 0.00 | 0.00 | 93 | 1022.0 |
| 20260831092810 | 69 | 191 | 0.0 | 0.0 | 0.00 | 0.00 | 0.00 | 93 | 1022.0 |
| 20260831092709 | 69 | 191 | 0.0 | 0.0 | 0.00 | 0.00 | 0.00 | 93 | 1022.0 |
| 20260831092610 | 69 | 191 | 0.0 | 0.0 | 0.00 | 0.00 | 0.00 | 93 | 1022.0 |
| 20260831092503 | 69 | 192 | 0.0 | 0.0 | 0.00 | 0.00 | 0.00 | 93 | 1022.0 |
| 20260831092402 | 69 | 192 | 0.0 | 0.0 | 0.00 | 0.00 | 0.00 | 93 | 1021.9 |
| 20260831092306 | 69 | 191 | 0.0 | 0.0 | 0.00 | 0.00 | 0.00 | 93 | 1022.0 |
| 20260831092204 | 69 | 192 | 0.0 | 0.0 | 0.00 | 0.00 | 0.00 | 93 | 1021.9 |
| 20260831092104 | 69 | 192 | 0.0 | 0.0 | 0.00 | 0.00 | 0.00 | 93 | 1021.9 |
| 20260831091956 | 69 | 192 | 0.0 | 0.0 | 0.00 | 0.00 | 0.00 | 93 | 1021.9 |
| 20260831091858 | 69 | 192 | 0.0 | 0.0 | 0.00 | 0.00 | 0.00 | 93 | 1021.9 |
| 20260831091758 | 69 | 191 | 0.0 | 0.0 | 0.00 | 0.00 | 0.00 | 93 | 1021.9 |
| 20260831091656 | 69 | 192 | 0.0 | 0.0 | 0.00 | 0.00 | 0.00 | 93 | 1022.0 |
| 20260831091553 | 69 | 192 | 0.0 | 0.0 | 0.00 | 0.00 | 0.00 | 93 | 1022.0 |
| 20260831091453 | 69 | 191 | 0.0 | 0.0 | 0.00 | 0.00 | 0.00 | 93 | 1022.0 |
| 20260831091352 | 69 | 192 | 0.0 | 0.0 | 0.00 | 0.00 | 0.00 | 93 | 1022.0 |
| 20260831091250 | 69 | 192 | 0.0 | 0.0 | 0.00 | 0.00 | 0.00 | 93 | 1022.0 |
| 20260831091150 | 69 | 192 | 0.0 | 0.0 | 0.00 | 0.00 | 0.00 | 93 | 1022.0 |
| 20260831091048 | 69 | 192 | 0.0 | 0.0 | 0.00 | 0.00 | 0.00 | 93 | 1022.1 |
| 20260831090942 | 69 | 192 | 0.0 | 0.0 | 0.00 | 0.00 | 0.00 | 92 | 1021.9 |
| 20260831090840 | 69 | 192 | 0.0 | 0.0 | 0.00 | 0.00 | 0.00 | 92 | 1022.1 |
| 20260831090740 | 69 | 192 | 0.0 | 0.0 | 0.00 | 0.00 | 0.00 | 92 | 1021.9 |
| 20260831090639 | 69 | 192 | 0.0 | 0.0 | 0.00 | 0.00 | 0.00 | 92 | 1022.0 |
| 20260831090539 | 69 | 192 | 0.0 | 0.0 | 0.00 | 0.00 | 0.00 | 92 | 1021.9 |
| 20260831090439 | 69 | 192 | 0.0 | 0.0 | 0.00 | 0.00 | 0.00 | 92 | 1021.9 |
| 20260831090338 | 69 | 192 | 0.0 | 0.0 | 0.00 | 0.00 | 0.00 | 92 | 1022.0 |
| 20260831090239 | 69 | 192 | 0.0 | 0.0 | 0.00 | 0.00 | 0.00 | 92 | 1022.0 |
| 20260831090138 | 69 | 192 | 0.0 | 0.0 | 0.00 | 0.00 | 0.00 | 92 | 1022.0 |
| 20260831090036 | 69 | 192 | 0.0 | 0.0 | 0.00 | 0.00 | 0.00 | 92 | 1022.0 |
| 20260831085937 | 69 | 192 | 0.0 | 0.0 | 0.00 | 0.00 | 0.00 | 92 | 1022.0 |
| 20260831085837 | 69 | 192 | 0.0 | 0.0 | 0.00 | 0.00 | 0.00 | 92 | 1022.0 |
| 20260831085736 | 69 | 192 | 0.0 | 0.0 | 0.00 | 0.00 | 0.00 | 92 | 1022.0 |
| 20260831085638 | 69 | 192 | 0.0 | 0.0 | 0.00 | 0.00 | 0.00 | 92 | 1022.1 |
| 20260831085537 | 69 | 191 | 0.0 | 0.0 | 0.00 | 0.00 | 0.00 | 92 | 1022.1 |
| 20260831085438 | 69 | 192 | 0.0 | 0.0 | 0.00 | 0.00 | 0.00 | 92 | 1022.0 |
| 20260831085336 | 69 | 192 | 0.0 | 0.0 | 0.00 | 0.00 | 0.00 | 92 | 1022.1 |
| 20260831085238 | 69 | 192 | 0.0 | 0.0 | 0.00 | 0.00 | 0.00 | 92 | 1022.1 |
| 20260831085136 | 69 | 192 | 0.0 | 0.0 | 0.00 | 0.00 | 0.00 | 92 | 1022.1 |
| 20260831085037 | 69 | 192 | 0.0 | 0.0 | 0.00 | 0.00 | 0.00 | 92 | 1022.1 |
| 20260831084936 | 69 | 191 | 0.0 | 0.0 | 0.00 | 0.00 | 0.00 | 92 | 1022.1 |
| 20260831084836 | 69 | 192 | 0.0 | 0.0 | 0.00 | 0.00 | 0.00 | 92 | 1022.1 |
| 20260831084737 | 69 | 192 | 0.0 | 0.0 | 0.00 | 0.00 | 0.00 | 92 | 1022.1 |
| 20260831084636 | 69 | 191 | 0.0 | 0.0 | 0.00 | 0.00 | 0.00 | 92 | 1022.0 |
| 20260831084538 | 69 | 191 | 0.0 | 0.0 | 0.00 | 0.00 | 0.00 | 92 | 1022.0 |
| 20260831084436 | 69 | 191 | 0.0 | 0.0 | 0.00 | 0.00 | 0.00 | 91 | 1022.1 |
| 20260831084336 | 69 | 191 | 0.0 | 0.0 | 0.00 | 0.00 | 0.00 | 91 | 1022.0 |
| 20260831084238 | 69 | 190 | 0.0 | 0.0 | 0.00 | 0.00 | 0.00 | 91 | 1022.0 |
| 20260831084137 | 69 | 191 | 0.0 | 0.0 | 0.00 | 0.00 | 0.00 | 91 | 1022.1 |
| 20260831084038 | 69 | 192 | 0.0 | 0.0 | 0.00 | 0.00 | 0.00 | 91 | 1022.0 |
| 20260831083938 | 69 | 192 | 0.0 | 0.0 | 0.00 | 0.00 | 0.00 | 91 | 1022.0 |
| 20260831083837 | 69 | 191 | 0.0 | 0.0 | 0.00 | 0.00 | 0.00 | 91 | 1022.0 |
| 20260831083736 | 69 | 192 | 0.0 | 0.0 | 0.00 | 0.00 | 0.00 | 91 | 1022.0 |
| 20260831083638 | 69 | 192 | 0.0 | 0.0 | 0.00 | 0.00 | 0.00 | 91 | 1021.9 |
| 20260831083536 | 69 | 192 | 0.0 | 0.0 | 0.00 | 0.00 | 0.00 | 91 | 1022.0 |
| 20260831083436 | 69 | 192 | 0.0 | 0.0 | 0.00 | 0.00 | 0.00 | 91 | 1022.0 |
| 20260831083337 | 69 | 192 | 0.0 | 0.0 | 0.00 | 0.00 | 0.00 | 91 | 1021.9 |
| 20260831083238 | 69 | 193 | 0.0 | 0.0 | 0.00 | 0.00 | 0.00 | 91 | 1021.9 |
| 20260831083133 | 69 | 193 | 0.0 | 0.0 | 0.00 | 0.00 | 0.00 | 90 | 1022.0 |
| 20260831083033 | 69 | 193 | 0.0 | 0.0 | 0.00 | 0.00 | 0.00 | 90 | 1021.9 |
| 20260831082932 | 69 | 193 | 0.0 | 0.0 | 0.00 | 0.00 | 0.00 | 90 | 1021.9 |
| 20260831082833 | 70 | 194 | 0.0 | 0.0 | 0.00 | 0.00 | 0.00 | 90 | 1022.0 |
| 20260831082734 | 70 | 193 | 0.0 | 0.0 | 0.00 | 0.00 | 0.00 | 90 | 1021.9 |
| 20260831082634 | 70 | 193 | 0.0 | 0.0 | 0.00 | 0.00 | 0.00 | 90 | 1021.9 |
| 20260831082533 | 70 | 195 | 0.0 | 0.0 | 0.00 | 0.00 | 0.00 | 90 | 1021.9 |
| 20260831082433 | 70 | 195 | 0.0 | 0.0 | 0.00 | 0.00 | 0.00 | 90 | 1021.9 |
| 20260831082333 | 70 | 196 | 0.0 | 0.0 | 0.00 | 0.00 | 0.00 | 90 | 1021.9 |
| 20260831082232 | 70 | 196 | 0.0 | 0.0 | 0.00 | 0.00 | 0.00 | 90 | 1021.9 |
| 20260831082133 | 70 | 196 | 0.0 | 0.0 | 0.00 | 0.00 | 0.00 | 90 | 1021.9 |
| 20260831082033 | 70 | 196 | 0.0 | 0.0 | 0.00 | 0.00 | 0.00 | 91 | 1021.7 |
| 20260831081934 | 70 | 196 | 0.0 | 0.0 | 0.00 | 0.00 | 0.00 | 90 | 1021.9 |
| 20260831081834 | 70 | 196 | 0.0 | 0.0 | 0.00 | 0.00 | 0.00 | 90 | 1021.7 |
| 20260831081733 | 70 | 196 | 0.0 | 0.0 | 0.00 | 0.00 | 0.00 | 90 | 1021.9 |
| 20260831081633 | 70 | 196 | 0.0 | 0.0 | 0.00 | 0.00 | 0.00 | 90 | 1021.7 |
| 20260831081532 | 70 | 200 | 0.0 | 0.0 | 0.00 | 0.00 | 0.00 | 91 | 1021.7 |
| 20260831081433 | 70 | 205 | 0.0 | 0.0 | 0.00 | 0.00 | 0.00 | 90 | 1021.7 |
| 20260831081332 | 70 | 204 | 0.0 | 0.0 | 0.00 | 0.00 | 0.00 | 90 | 1021.7 |
| 20260831081233 | 70 | 205 | 0.0 | 0.0 | 0.00 | 0.00 | 0.00 | 90 | 1021.9 |
| 20260831081133 | 70 | 205 | 0.0 | 0.0 | 0.00 | 0.00 | 0.00 | 90 | 1021.7 |
| 20260831081034 | 70 | 205 | 0.0 | 0.0 | 0.00 | 0.00 | 0.00 | 90 | 1021.9 |
| 20260831080932 | 70 | 205 | 0.0 | 0.0 | 0.00 | 0.00 | 0.00 | 90 | 1021.6 |
| 20260831080834 | 70 | 219 | 0.0 | 0.0 | 0.00 | 0.00 | 0.00 | 91 | 1021.7 |
| 20260831080732 | 70 | 219 | 0.0 | 0.0 | 0.00 | 0.00 | 0.00 | 90 | 1021.7 |
| 20260831080634 | 70 | 219 | 0.0 | 0.0 | 0.00 | 0.00 | 0.00 | 90 | 1021.9 |
| 20260831080533 | 70 | 222 | 0.0 | 0.0 | 0.00 | 0.00 | 0.00 | 90 | 1021.9 |
| 20260831080432 | 70 | 223 | 0.0 | 0.0 | 0.00 | 0.00 | 0.00 | 90 | 1021.9 |
| 20260831080333 | 70 | 223 | 0.0 | 0.0 | 0.00 | 0.00 | 0.00 | 90 | 1021.6 |
| 20260831080232 | 70 | 223 | 0.0 | 0.0 | 0.00 | 0.00 | 0.00 | 90 | 1021.7 |
| 20260831080133 | 70 | 219 | 0.0 | 0.0 | 0.00 | 0.00 | 0.00 | 90 | 1021.9 |
| 20260831080033 | 70 | 209 | 0.0 | 0.0 | 0.00 | 0.00 | 0.00 | 90 | 1021.9 |
| 20260831075934 | 70 | 208 | 0.0 | 0.0 | 0.00 | 0.00 | 0.00 | 90 | 1021.7 |
| 20260831075832 | 70 | 225 | 0.0 | 0.0 | 0.00 | 0.00 | 0.00 | 90 | 1021.9 |
| 20260831075732 | 70 | 178 | 0.0 | 0.0 | 0.00 | 0.00 | 0.00 | 90 | 1021.7 |
| 20260831075632 | 70 | 178 | 0.0 | 0.0 | 0.00 | 0.00 | 0.00 | 91 | 1021.7 |
| 20260831075534 | 70 | 177 | 0.0 | 0.0 | 0.00 | 0.00 | 0.00 | 91 | 1021.7 |
| 20260831075432 | 70 | 178 | 0.0 | 0.0 | 0.00 | 0.00 | 0.00 | 91 | 1021.7 |
| 20260831075332 | 70 | 190 | 0.0 | 0.0 | 0.00 | 0.00 | 0.00 | 91 | 1021.7 |
| 20260831075233 | 69 | 190 | 0.0 | 0.0 | 0.00 | 0.00 | 0.00 | 91 | 1021.7 |
| 20260831075133 | 69 | 214 | 0.0 | 0.0 | 0.00 | 0.00 | 0.00 | 91 | 1021.9 |
| 20260831075032 | 69 | 218 | 0.0 | 0.0 | 0.00 | 0.00 | 0.00 | 91 | 1021.7 |
| 20260831074934 | 69 | 218 | 0.0 | 0.0 | 0.00 | 0.00 | 0.00 | 91 | 1021.7 |
| 20260831074832 | 69 | 218 | 0.0 | 0.0 | 0.00 | 0.00 | 0.00 | 91 | 1021.7 |
| 20260831074733 | 69 | 173 | 0.0 | 0.0 | 0.00 | 0.00 | 0.00 | 91 | 1021.9 |
| 20260831074632 | 69 | 173 | 0.0 | 0.0 | 0.00 | 0.00 | 0.00 | 91 | 1021.9 |
| 20260831074533 | 69 | 173 | 0.0 | 0.0 | 0.00 | 0.00 | 0.00 | 91 | 1021.9 |
| 20260831074430 | 69 | 177 | 0.0 | 0.0 | 0.00 | 0.00 | 0.00 | 91 | 1021.9 |
| 20260831074328 | 69 | 177 | 0.0 | 0.0 | 0.00 | 0.00 | 0.00 | 91 | 1022.0 |
| 20260831074230 | 69 | 217 | 0.0 | 0.0 | 0.00 | 0.00 | 0.00 | 91 | 1021.9 |
| 20260831074128 | 69 | 217 | 0.0 | 0.0 | 0.00 | 0.00 | 0.00 | 91 | 1022.0 |
| 20260831074030 | 69 | 215 | 0.0 | 0.0 | 0.00 | 0.00 | 0.00 | 91 | 1022.0 |
| 20260831073928 | 69 | 215 | 0.0 | 0.0 | 0.00 | 0.00 | 0.00 | 91 | 1021.9 |
| 20260831073829 | 69 | 221 | 0.0 | 0.0 | 0.00 | 0.00 | 0.00 | 91 | 1022.0 |
| 20260831073729 | 69 | 223 | 0.0 | 0.0 | 0.00 | 0.00 | 0.00 | 91 | 1022.0 |
| 20260831073629 | 69 | 223 | 0.0 | 0.0 | 0.00 | 0.00 | 0.00 | 91 | 1021.9 |
| 20260831073529 | 69 | 223 | 0.0 | 0.0 | 0.00 | 0.00 | 0.00 | 91 | 1022.0 |
| 20260831073430 | 69 | 210 | 0.0 | 0.0 | 0.00 | 0.00 | 0.00 | 91 | 1021.9 |
| 20260831073329 | 69 | 210 | 0.0 | 0.0 | 0.00 | 0.00 | 0.00 | 91 | 1021.9 |
| 20260831073228 | 69 | 210 | 0.0 | 0.0 | 0.00 | 0.00 | 0.00 | 91 | 1021.9 |
| 20260831073128 | 69 | 211 | 0.0 | 0.0 | 0.00 | 0.00 | 0.00 | 91 | 1021.9 |
| 20260831073028 | 69 | 241 | 0.0 | 0.0 | 0.00 | 0.00 | 0.00 | 92 | 1021.9 |
| 20260831072930 | 69 | 241 | 0.0 | 0.0 | 0.00 | 0.00 | 0.00 | 92 | 1021.9 |
| 20260831072828 | 69 | 240 | 0.0 | 0.0 | 0.00 | 0.00 | 0.00 | 92 | 1021.9 |
| 20260831072729 | 69 | 240 | 0.0 | 0.0 | 0.00 | 0.00 | 0.00 | 92 | 1022.0 |
| 20260831072628 | 69 | 73 | 0.0 | 0.0 | 0.00 | 0.00 | 0.00 | 92 | 1022.0 |
| 20260831072529 | 69 | 94 | 0.0 | 0.0 | 0.00 | 0.00 | 0.00 | 91 | 1022.0 |
| 20260831072429 | 69 | 94 | 0.0 | 0.0 | 0.00 | 0.00 | 0.00 | 92 | 1022.0 |
| 20260831072328 | 69 | 93 | 0.0 | 0.0 | 0.00 | 0.00 | 0.00 | 92 | 1021.9 |
| 20260831072230 | 69 | 93 | 0.0 | 0.0 | 0.00 | 0.00 | 0.00 | 92 | 1022.0 |
| 20260831072129 | 69 | 93 | 0.0 | 0.0 | 0.00 | 0.00 | 0.00 | 92 | 1022.0 |
| 20260831072030 | 69 | 93 | 0.0 | 0.0 | 0.00 | 0.00 | 0.00 | 92 | 1022.0 |
| 20260831071930 | 69 | 93 | 0.0 | 0.0 | 0.00 | 0.00 | 0.00 | 92 | 1022.0 |
| 20260831071828 | 69 | 93 | 0.0 | 0.0 | 0.00 | 0.00 | 0.00 | 92 | 1021.9 |
| 20260831071729 | 69 | 93 | 0.0 | 0.0 | 0.00 | 0.00 | 0.00 | 92 | 1022.0 |
| 20260831071628 | 69 | 93 | 0.0 | 0.0 | 0.00 | 0.00 | 0.00 | 92 | 1022.0 |
| 20260831071530 | 69 | 93 | 0.0 | 0.0 | 0.00 | 0.00 | 0.00 | 92 | 1021.9 |
| 20260831071428 | 69 | 93 | 0.0 | 0.0 | 0.00 | 0.00 | 0.00 | 92 | 1021.9 |
| 20260831071330 | 69 | 93 | 0.0 | 0.0 | 0.00 | 0.00 | 0.00 | 91 | 1022.0 |
| 20260831071229 | 69 | 93 | 0.0 | 0.0 | 0.00 | 0.00 | 0.00 | 91 | 1022.0 |
| 20260831071124 | 69 | 93 | 0.0 | 0.0 | 0.00 | 0.00 | 0.00 | 91 | 1022.0 |
| 20260831071025 | 69 | 92 | 0.0 | 0.0 | 0.00 | 0.00 | 0.00 | 91 | 1021.9 |
| 20260831070924 | 69 | 92 | 0.0 | 0.0 | 0.00 | 0.00 | 0.00 | 91 | 1022.0 |
| 20260831070825 | 69 | 92 | 0.0 | 0.0 | 0.00 | 0.00 | 0.00 | 91 | 1022.0 |
| 20260831070724 | 69 | 93 | 0.0 | 0.0 | 0.00 | 0.00 | 0.00 | 91 | 1022.0 |
| 20260831070624 | 69 | 93 | 0.0 | 0.0 | 0.00 | 0.00 | 0.00 | 91 | 1021.9 |
| 20260831070524 | 69 | 93 | 0.0 | 0.0 | 0.00 | 0.00 | 0.00 | 91 | 1022.1 |
| 20260831070424 | 69 | 93 | 0.0 | 0.0 | 0.00 | 0.00 | 0.00 | 91 | 1022.0 |
| 20260831070324 | 69 | 93 | 0.0 | 0.0 | 0.00 | 0.00 | 0.00 | 91 | 1022.0 |
| 20260831070225 | 69 | 92 | 0.0 | 0.0 | 0.00 | 0.00 | 0.00 | 91 | 1022.1 |
| 20260831070124 | 69 | 92 | 0.0 | 0.0 | 0.00 | 0.00 | 0.00 | 91 | 1022.1 |
| 20260831070025 | 69 | 93 | 0.0 | 0.0 | 0.00 | 0.00 | 0.00 | 91 | 1022.1 |
| 20260831065926 | 69 | 92 | 0.0 | 0.0 | 0.00 | 0.00 | 0.00 | 91 | 1022.2 |
| 20260831065824 | 69 | 92 | 0.0 | 0.0 | 0.00 | 0.00 | 0.00 | 91 | 1022.2 |
| 20260831065725 | 69 | 93 | 0.0 | 0.0 | 0.00 | 0.00 | 0.00 | 91 | 1022.2 |
| 20260831065624 | 69 | 93 | 0.0 | 0.0 | 0.00 | 0.00 | 0.00 | 91 | 1022.2 |
| 20260831065526 | 69 | 92 | 0.0 | 0.0 | 0.00 | 0.00 | 0.00 | 91 | 1022.1 |
| 20260831065424 | 69 | 93 | 0.0 | 0.0 | 0.00 | 0.00 | 0.00 | 91 | 1022.1 |
| 20260831065324 | 69 | 157 | 0.0 | 0.0 | 0.00 | 0.00 | 0.00 | 91 | 1022.1 |
| 20260831065225 | 69 | 157 | 0.0 | 0.0 | 0.00 | 0.00 | 0.00 | 91 | 1022.3 |
| 20260831065125 | 69 | 157 | 0.0 | 0.0 | 0.00 | 0.00 | 0.00 | 91 | 1022.2 |
| 20260831065026 | 69 | 157 | 0.0 | 0.0 | 0.00 | 0.00 | 0.00 | 91 | 1022.3 |
| 20260831064924 | 69 | 157 | 0.0 | 0.0 | 0.00 | 0.00 | 0.00 | 91 | 1022.3 |
| 20260831064825 | 69 | 157 | 0.0 | 0.0 | 0.00 | 0.00 | 0.00 | 91 | 1022.2 |
| 20260831064724 | 69 | 158 | 0.0 | 0.0 | 0.00 | 0.00 | 0.00 | 91 | 1022.3 |
| 20260831064626 | 69 | 158 | 0.0 | 0.0 | 0.00 | 0.00 | 0.00 | 91 | 1022.2 |
| 20260831064516 | 70 | 157 | 0.0 | 0.0 | 0.00 | 0.00 | 0.00 | 91 | 1022.3 |
| 20260831064414 | 69 | 157 | 0.0 | 0.0 | 0.00 | 0.00 | 0.00 | 91 | 1022.3 |
| 20260831064314 | 70 | 158 | 0.0 | 0.0 | 0.00 | 0.00 | 0.00 | 91 | 1022.4 |
| 20260831064216 | 70 | 158 | 0.0 | 0.0 | 0.00 | 0.00 | 0.00 | 91 | 1022.4 |
| 20260831064114 | 70 | 157 | 0.0 | 0.0 | 0.00 | 0.00 | 0.00 | 91 | 1022.4 |
| 20260831064013 | 70 | 158 | 0.0 | 0.0 | 0.00 | 0.00 | 0.00 | 91 | 1022.3 |
| 20260831063912 | 70 | 158 | 0.0 | 0.0 | 0.00 | 0.00 | 0.00 | 91 | 1022.4 |
| 20260831063810 | 70 | 158 | 0.0 | 0.0 | 0.00 | 0.00 | 0.00 | 91 | 1022.4 |
| 20260831063710 | 70 | 158 | 0.0 | 0.0 | 0.00 | 0.00 | 0.00 | 91 | 1022.4 |
| 20260831063606 | 70 | 158 | 0.0 | 0.0 | 0.00 | 0.00 | 0.00 | 91 | 1022.4 |
| 20260831063502 | 70 | 158 | 0.0 | 0.0 | 0.00 | 0.00 | 0.00 | 91 | 1022.4 |
| 20260831063400 | 70 | 158 | 0.0 | 0.0 | 0.00 | 0.00 | 0.00 | 91 | 1022.4 |
| 20260831063301 | 70 | 158 | 0.0 | 0.0 | 0.00 | 0.00 | 0.00 | 91 | 1022.5 |
| 20260831063202 | 70 | 158 | 0.0 | 0.0 | 0.00 | 0.00 | 0.00 | 91 | 1022.5 |
| 20260831063100 | 70 | 157 | 0.0 | 0.0 | 0.00 | 0.00 | 0.00 | 91 | 1022.4 |
| 20260831062954 | 70 | 158 | 0.0 | 0.0 | 0.00 | 0.00 | 0.00 | 92 | 1022.4 |
| 20260831062851 | 70 | 158 | 0.0 | 0.0 | 0.00 | 0.00 | 0.00 | 91 | 1022.5 |
| 20260831062749 | 70 | 158 | 0.0 | 0.0 | 0.00 | 0.00 | 0.00 | 91 | 1022.4 |
| 20260831062650 | 70 | 158 | 0.0 | 0.0 | 0.00 | 0.00 | 0.00 | 92 | 1022.4 |
| 20260831062550 | 70 | 158 | 0.0 | 0.0 | 0.00 | 0.00 | 0.00 | 92 | 1022.4 |
| 20260831062451 | 70 | 158 | 0.0 | 0.0 | 0.00 | 0.00 | 0.00 | 92 | 1022.4 |
| 20260831062348 | 70 | 158 | 0.0 | 0.0 | 0.00 | 0.00 | 0.00 | 92 | 1022.4 |
| 20260831062248 | 70 | 158 | 0.0 | 0.0 | 0.00 | 0.00 | 0.00 | 92 | 1022.4 |
| 20260831062147 | 70 | 158 | 0.0 | 0.0 | 0.00 | 0.00 | 0.00 | 92 | 1022.4 |
| 20260831062045 | 70 | 158 | 0.0 | 0.0 | 0.00 | 0.00 | 0.00 | 92 | 1022.5 |
| 20260831061942 | 70 | 158 | 0.0 | 0.0 | 0.00 | 0.00 | 0.00 | 92 | 1022.4 |
| 20260831061843 | 70 | 158 | 0.0 | 0.0 | 0.00 | 0.00 | 0.00 | 92 | 1022.5 |
| 20260831061741 | 70 | 158 | 0.0 | 0.0 | 0.00 | 0.00 | 0.00 | 92 | 1022.4 |
| 20260831061640 | 70 | 158 | 0.0 | 0.0 | 0.00 | 0.00 | 0.00 | 92 | 1022.5 |
| 20260831061539 | 70 | 158 | 0.0 | 0.0 | 0.00 | 0.00 | 0.00 | 92 | 1022.6 |
| 20260831061430 | 70 | 157 | 0.0 | 0.0 | 0.00 | 0.00 | 0.00 | 92 | 1022.6 |
| 20260831061331 | 70 | 157 | 0.0 | 0.0 | 0.00 | 0.00 | 0.00 | 92 | 1022.6 |
| 20260831061231 | 70 | 158 | 0.0 | 0.0 | 0.00 | 0.00 | 0.00 | 92 | 1022.6 |
| 20260831061130 | 70 | 157 | 0.0 | 0.0 | 0.00 | 0.00 | 0.00 | 92 | 1022.6 |
| 20260831061029 | 70 | 157 | 0.0 | 0.0 | 0.00 | 0.00 | 0.00 | 92 | 1022.6 |
| 20260831060929 | 70 | 157 | 0.0 | 0.0 | 0.00 | 0.00 | 0.00 | 92 | 1022.6 |
| 20260831060827 | 70 | 157 | 0.0 | 0.0 | 0.00 | 0.00 | 0.00 | 92 | 1022.6 |
| 20260831060725 | 70 | 158 | 0.0 | 0.0 | 0.00 | 0.00 | 0.00 | 92 | 1022.7 |
| 20260831060624 | 70 | 157 | 0.0 | 0.0 | 0.00 | 0.00 | 0.00 | 92 | 1022.6 |
| 20260831060524 | 70 | 157 | 0.0 | 0.0 | 0.00 | 0.00 | 0.00 | 92 | 1022.7 |
| 20260831060425 | 70 | 157 | 0.0 | 0.0 | 0.00 | 0.00 | 0.00 | 91 | 1022.7 |
| 20260831060325 | 70 | 158 | 0.0 | 0.0 | 0.00 | 0.00 | 0.00 | 91 | 1022.6 |
| 20260831060221 | 70 | 158 | 0.0 | 0.0 | 0.00 | 0.00 | 0.00 | 91 | 1022.6 |
| 20260831060118 | 70 | 157 | 0.0 | 0.0 | 0.00 | 0.00 | 0.00 | 91 | 1022.6 |
| 20260831060016 | 70 | 158 | 0.0 | 0.0 | 0.00 | 0.00 | 0.00 | 91 | 1022.7 |
| 20260831055907 | 70 | 158 | 0.0 | 0.0 | 0.00 | 0.00 | 0.00 | 91 | 1022.8 |
| 20260831055806 | 70 | 158 | 0.0 | 0.0 | 0.00 | 0.00 | 0.00 | 91 | 1022.8 |
| 20260831055706 | 70 | 158 | 0.0 | 0.0 | 0.00 | 0.00 | 0.00 | 91 | 1022.7 |
| 20260831055607 | 70 | 157 | 0.0 | 0.0 | 0.00 | 0.00 | 0.00 | 91 | 1022.7 |
| 20260831055507 | 70 | 157 | 0.0 | 0.0 | 0.00 | 0.00 | 0.00 | 91 | 1022.6 |
| 20260831055402 | 70 | 157 | 0.0 | 0.0 | 0.00 | 0.00 | 0.00 | 91 | 1022.7 |
| 20260831055301 | 70 | 157 | 0.0 | 0.0 | 0.00 | 0.00 | 0.00 | 91 | 1022.7 |
| 20260831055201 | 70 | 157 | 0.0 | 0.0 | 0.00 | 0.00 | 0.00 | 91 | 1022.8 |
| 20260831055101 | 70 | 158 | 0.0 | 0.0 | 0.00 | 0.00 | 0.00 | 91 | 1022.7 |
| 20260831055001 | 70 | 157 | 0.0 | 0.0 | 0.00 | 0.00 | 0.00 | 91 | 1022.7 |
| 20260831054856 | 70 | 157 | 0.0 | 0.0 | 0.00 | 0.00 | 0.00 | 91 | 1022.7 |
| 20260831054755 | 70 | 157 | 0.0 | 0.0 | 0.00 | 0.00 | 0.00 | 91 | 1022.7 |
| 20260831054654 | 70 | 157 | 0.0 | 0.0 | 0.00 | 0.00 | 0.00 | 90 | 1022.8 |
| 20260831054556 | 70 | 157 | 0.0 | 0.0 | 0.00 | 0.00 | 0.00 | 90 | 1022.7 |
| 20260831054455 | 70 | 156 | 0.0 | 0.0 | 0.00 | 0.00 | 0.00 | 90 | 1022.7 |
| 20260831054348 | 70 | 157 | 0.0 | 0.0 | 0.00 | 0.00 | 0.00 | 90 | 1022.8 |
| 20260831054250 | 70 | 156 | 0.0 | 0.0 | 0.00 | 0.00 | 0.00 | 90 | 1022.7 |
| 20260831054148 | 70 | 157 | 0.0 | 0.0 | 0.00 | 0.00 | 0.00 | 90 | 1022.8 |
| 20260831054048 | 70 | 157 | 0.0 | 0.0 | 0.00 | 0.00 | 0.00 | 90 | 1022.7 |
| 20260831053944 | 70 | 157 | 0.0 | 0.0 | 0.00 | 0.00 | 0.00 | 90 | 1022.8 |
| 20260831053843 | 70 | 157 | 0.0 | 0.0 | 0.00 | 0.00 | 0.00 | 90 | 1022.8 |
| 20260831053742 | 70 | 157 | 0.0 | 0.0 | 0.00 | 0.00 | 0.00 | 90 | 1022.8 |
| 20260831053643 | 70 | 157 | 0.0 | 0.0 | 0.00 | 0.00 | 0.00 | 90 | 1022.8 |
| 20260831053543 | 70 | 156 | 0.0 | 0.0 | 0.00 | 0.00 | 0.00 | 90 | 1022.8 |
| 20260831053443 | 70 | 157 | 0.0 | 0.0 | 0.00 | 0.00 | 0.00 | 90 | 1022.8 |
| 20260831053335 | 70 | 157 | 0.0 | 0.0 | 0.00 | 0.00 | 0.00 | 90 | 1022.8 |
| 20260831053232 | 70 | 157 | 0.0 | 0.0 | 0.00 | 0.00 | 0.00 | 90 | 1022.8 |
| 20260831053132 | 70 | 156 | 0.0 | 0.0 | 0.00 | 0.00 | 0.00 | 89 | 1022.8 |
| 20260831053030 | 70 | 157 | 0.0 | 0.0 | 0.00 | 0.00 | 0.00 | 89 | 1022.9 |
| 20260831052929 | 70 | 157 | 0.0 | 0.0 | 0.00 | 0.00 | 0.00 | 89 | 1022.9 |
| 20260831052825 | 70 | 157 | 0.0 | 0.0 | 0.00 | 0.00 | 0.00 | 89 | 1022.8 |
| 20260831052722 | 70 | 154 | 0.0 | 0.0 | 0.00 | 0.00 | 0.00 | 89 | 1022.9 |
| 20260831052623 | 70 | 154 | 0.0 | 0.0 | 0.00 | 0.00 | 0.00 | 89 | 1022.8 |
| 20260831052521 | 70 | 153 | 0.0 | 0.0 | 0.00 | 0.00 | 0.00 | 89 | 1022.9 |
| 20260831052418 | 70 | 150 | 0.0 | 0.0 | 0.00 | 0.00 | 0.00 | 89 | 1022.9 |
| 20260831052316 | 70 | 151 | 0.0 | 0.0 | 0.00 | 0.00 | 0.00 | 89 | 1022.9 |
| 20260831052215 | 70 | 150 | 0.0 | 0.0 | 0.00 | 0.00 | 0.00 | 89 | 1022.8 |
| 20260831052116 | 70 | 149 | 0.0 | 0.0 | 0.00 | 0.00 | 0.00 | 89 | 1022.8 |
| 20260831052015 | 71 | 157 | 0.0 | 0.0 | 0.00 | 0.00 | 0.00 | 89 | 1022.8 |
| 20260831051913 | 71 | 146 | 0.0 | 0.0 | 0.00 | 0.00 | 0.00 | 89 | 1022.9 |
| 20260831051813 | 71 | 145 | 0.0 | 0.0 | 0.00 | 0.00 | 0.00 | 89 | 1022.8 |
| 20260831051711 | 71 | 143 | 0.0 | 0.0 | 0.00 | 0.00 | 0.00 | 89 | 1022.8 |
| 20260831051610 | 71 | 145 | 0.0 | 0.0 | 0.00 | 0.00 | 0.00 | 89 | 1022.9 |
| 20260831051507 | 71 | 146 | 0.0 | 0.0 | 0.00 | 0.00 | 0.00 | 89 | 1022.9 |
| 20260831051407 | 71 | 146 | 0.0 | 0.0 | 0.00 | 0.00 | 0.00 | 89 | 1022.8 |
| 20260831051256 | 71 | 142 | 0.0 | 0.0 | 0.00 | 0.00 | 0.00 | 89 | 1022.8 |
| 20260831051156 | 71 | 145 | 0.0 | 0.0 | 0.00 | 0.00 | 0.00 | 89 | 1022.8 |
| 20260831051058 | 71 | 144 | 0.0 | 0.0 | 0.00 | 0.00 | 0.00 | 89 | 1022.9 |
| 20260831050956 | 71 | 145 | 0.0 | 0.0 | 0.00 | 0.00 | 0.00 | 89 | 1022.9 |
| 20260831050856 | 71 | 143 | 0.0 | 0.0 | 0.00 | 0.00 | 0.00 | 89 | 1022.9 |
| 20260831050756 | 71 | 142 | 0.0 | 0.0 | 0.00 | 0.00 | 0.00 | 89 | 1022.9 |
| 20260831050655 | 71 | 142 | 0.0 | 0.0 | 0.00 | 0.00 | 0.00 | 89 | 1022.9 |
| 20260831050555 | 71 | 143 | 0.0 | 0.0 | 0.00 | 0.00 | 0.00 | 89 | 1022.8 |
| 20260831050452 | 71 | 144 | 0.0 | 0.0 | 0.00 | 0.00 | 0.00 | 89 | 1022.8 |
| 20260831050351 | 71 | 143 | 0.0 | 0.0 | 0.00 | 0.00 | 0.00 | 89 | 1022.9 |
| 20260831050245 | 71 | 143 | 0.0 | 0.0 | 0.00 | 0.00 | 0.00 | 89 | 1022.8 |
| 20260831050146 | 71 | 144 | 0.0 | 0.0 | 0.00 | 0.00 | 0.00 | 89 | 1022.8 |
| 20260831050045 | 71 | 145 | 0.0 | 0.0 | 0.00 | 0.00 | 0.00 | 89 | 1022.8 |
| 20260831045944 | 71 | 146 | 0.0 | 0.0 | 0.00 | 0.00 | 0.00 | 89 | 1022.9 |
| 20260831045845 | 71 | 146 | 0.0 | 0.0 | 0.00 | 0.00 | 0.00 | 89 | 1022.8 |
| 20260831045737 | 71 | 146 | 0.0 | 0.0 | 0.00 | 0.00 | 0.00 | 89 | 1022.9 |
| 20260831045635 | 71 | 146 | 0.0 | 0.0 | 0.00 | 0.00 | 0.00 | 89 | 1022.9 |
| 20260831045534 | 71 | 146 | 0.0 | 0.0 | 0.00 | 0.00 | 0.00 | 89 | 1022.9 |
| 20260831045434 | 71 | 147 | 0.0 | 0.0 | 0.00 | 0.00 | 0.00 | 89 | 1022.9 |
| 20260831045335 | 71 | 147 | 0.0 | 0.0 | 0.00 | 0.00 | 0.00 | 89 | 1022.9 |
| 20260831045232 | 71 | 146 | 0.0 | 0.0 | 0.00 | 0.00 | 0.00 | 89 | 1022.9 |
| 20260831045132 | 71 | 148 | 0.0 | 0.0 | 0.00 | 0.00 | 0.00 | 89 | 1022.9 |
| 20260831045033 | 71 | 148 | 0.0 | 0.0 | 0.00 | 0.00 | 0.00 | 89 | 1022.8 |
| 20260831044930 | 71 | 148 | 0.0 | 0.0 | 0.00 | 0.00 | 0.00 | 89 | 1022.8 |
| 20260831044828 | 71 | 148 | 0.0 | 0.0 | 0.00 | 0.00 | 0.00 | 89 | 1022.8 |
| 20260831044722 | 71 | 148 | 0.0 | 0.0 | 0.00 | 0.00 | 0.00 | 89 | 1022.8 |
| 20260831044622 | 71 | 149 | 0.0 | 0.0 | 0.00 | 0.00 | 0.00 | 89 | 1022.8 |
| 20260831044522 | 71 | 150 | 0.0 | 0.0 | 0.00 | 0.00 | 0.00 | 89 | 1022.9 |
| 20260831044423 | 71 | 148 | 0.0 | 0.0 | 0.00 | 0.00 | 0.00 | 89 | 1022.9 |
| 20260831044322 | 71 | 148 | 0.0 | 0.0 | 0.00 | 0.00 | 0.00 | 89 | 1022.8 |
| 20260831044215 | 71 | 146 | 0.0 | 0.0 | 0.00 | 0.00 | 0.00 | 89 | 1022.8 |
| 20260831044112 | 71 | 146 | 0.0 | 0.0 | 0.00 | 0.00 | 0.00 | 89 | 1022.8 |
| 20260831044011 | 71 | 146 | 0.0 | 0.0 | 0.00 | 0.00 | 0.00 | 89 | 1022.8 |
| 20260831043912 | 71 | 149 | 0.0 | 0.0 | 0.00 | 0.00 | 0.00 | 89 | 1022.8 |
| 20260831043813 | 71 | 148 | 0.0 | 0.0 | 0.00 | 0.00 | 0.00 | 89 | 1022.8 |
| 20260831043706 | 71 | 149 | 0.0 | 0.0 | 0.00 | 0.00 | 0.00 | 89 | 1022.9 |
| 20260831043606 | 71 | 146 | 0.0 | 0.0 | 0.00 | 0.00 | 0.00 | 89 | 1022.8 |
| 20260831043507 | 71 | 146 | 0.0 | 0.0 | 0.00 | 0.00 | 0.00 | 89 | 1022.8 |
| 20260831043405 | 71 | 150 | 0.0 | 0.0 | 0.00 | 0.00 | 0.00 | 89 | 1022.9 |
| 20260831043306 | 71 | 148 | 0.0 | 0.0 | 0.00 | 0.00 | 0.00 | 88 | 1022.9 |
| 20260831043200 | 71 | 147 | 0.0 | 0.0 | 0.00 | 0.00 | 0.00 | 88 | 1022.9 |
| 20260831043100 | 71 | 143 | 0.0 | 0.0 | 0.00 | 0.00 | 0.00 | 88 | 1023.0 |
| 20260831043001 | 71 | 150 | 0.0 | 0.0 | 0.00 | 0.00 | 0.00 | 88 | 1023.0 |
| 20260831042901 | 71 | 148 | 0.0 | 0.0 | 0.00 | 0.00 | 0.00 | 88 | 1022.9 |
| 20260831042800 | 71 | 147 | 0.0 | 0.0 | 0.00 | 0.00 | 0.00 | 88 | 1022.9 |
| 20260831042650 | 71 | 148 | 0.0 | 0.0 | 0.00 | 0.00 | 0.00 | 88 | 1022.8 |
| 20260831042551 | 71 | 149 | 0.0 | 0.0 | 0.00 | 0.00 | 0.00 | 88 | 1022.9 |
| 20260831042450 | 71 | 149 | 0.0 | 0.0 | 0.00 | 0.00 | 0.00 | 88 | 1022.9 |
| 20260831042351 | 71 | 148 | 0.0 | 0.0 | 0.00 | 0.00 | 0.00 | 88 | 1022.9 |
| 20260831042250 | 71 | 149 | 0.0 | 0.0 | 0.00 | 0.00 | 0.00 | 88 | 1022.9 |
| 20260831042144 | 71 | 148 | 0.0 | 0.0 | 0.00 | 0.00 | 0.00 | 88 | 1022.9 |
| 20260831042045 | 71 | 149 | 0.0 | 0.0 | 0.00 | 0.00 | 0.00 | 88 | 1022.9 |
| 20260831041945 | 71 | 150 | 0.0 | 0.0 | 0.00 | 0.00 | 0.00 | 88 | 1023.0 |
| 20260831041844 | 71 | 148 | 0.0 | 0.0 | 0.00 | 0.00 | 0.00 | 88 | 1022.8 |
| 20260831041744 | 71 | 148 | 0.0 | 0.0 | 0.00 | 0.00 | 0.00 | 88 | 1022.9 |
| 20260831041641 | 71 | 149 | 0.0 | 0.0 | 0.00 | 0.00 | 0.00 | 88 | 1022.9 |
| 20260831041541 | 71 | 150 | 0.0 | 0.0 | 0.00 | 0.00 | 0.00 | 88 | 1022.9 |
| 20260831041438 | 71 | 149 | 0.0 | 0.0 | 0.00 | 0.00 | 0.00 | 88 | 1022.9 |
| 20260831041340 | 71 | 150 | 0.0 | 0.0 | 0.00 | 0.00 | 0.00 | 87 | 1023.0 |
| 20260831041237 | 71 | 150 | 0.0 | 0.0 | 0.00 | 0.00 | 0.00 | 87 | 1022.9 |
| 20260831041130 | 71 | 150 | 0.0 | 0.0 | 0.00 | 0.00 | 0.00 | 87 | 1023.0 |
| 20260831041032 | 71 | 150 | 0.0 | 0.0 | 0.00 | 0.00 | 0.00 | 87 | 1023.0 |
| 20260831040928 | 71 | 150 | 0.0 | 0.0 | 0.00 | 0.00 | 0.00 | 87 | 1023.0 |
| 20260831040830 | 71 | 150 | 0.0 | 0.0 | 0.00 | 0.00 | 0.00 | 87 | 1022.9 |
| 20260831040726 | 71 | 149 | 0.0 | 0.0 | 0.00 | 0.00 | 0.00 | 87 | 1023.0 |
| 20260831040623 | 72 | 149 | 0.0 | 0.0 | 0.00 | 0.00 | 0.00 | 87 | 1023.0 |
| 20260831040520 | 72 | 150 | 0.0 | 0.0 | 0.00 | 0.00 | 0.00 | 87 | 1023.0 |
| 20260831040421 | 71 | 148 | 0.0 | 0.0 | 0.00 | 0.00 | 0.00 | 87 | 1022.9 |
| 20260831040320 | 72 | 149 | 0.0 | 0.0 | 0.00 | 0.00 | 0.00 | 87 | 1023.0 |
| 20260831040220 | 72 | 150 | 0.0 | 0.0 | 0.00 | 0.00 | 0.00 | 87 | 1023.0 |
| 20260831040121 | 72 | 148 | 0.0 | 0.0 | 0.00 | 0.00 | 0.00 | 87 | 1023.0 |
| 20260831040018 | 72 | 148 | 0.0 | 0.0 | 0.00 | 0.00 | 0.00 | 87 | 1023.0 |
| 20260831035917 | 72 | 149 | 0.0 | 0.0 | 0.00 | 0.00 | 0.00 | 87 | 1023.0 |
| 20260831035817 | 72 | 148 | 0.0 | 0.0 | 0.00 | 0.00 | 0.00 | 87 | 1023.0 |
| 20260831035715 | 72 | 150 | 0.0 | 0.0 | 0.00 | 0.00 | 0.00 | 87 | 1023.0 |
| 20260831035605 | 72 | 148 | 0.0 | 0.0 | 0.00 | 0.00 | 0.00 | 87 | 1023.1 |
| 20260831035505 | 72 | 148 | 0.0 | 0.0 | 0.00 | 0.00 | 0.00 | 87 | 1023.1 |
| 20260831035404 | 72 | 148 | 0.0 | 0.0 | 0.00 | 0.00 | 0.00 | 87 | 1023.1 |
| 20260831035306 | 72 | 148 | 0.0 | 0.0 | 0.00 | 0.00 | 0.00 | 87 | 1023.2 |
| 20260831035205 | 72 | 148 | 0.0 | 0.0 | 0.00 | 0.00 | 0.00 | 87 | 1023.1 |
| 20260831035102 | 72 | 148 | 0.0 | 0.0 | 0.00 | 0.00 | 0.00 | 87 | 1023.1 |
| 20260831035002 | 72 | 149 | 0.0 | 0.0 | 0.00 | 0.00 | 0.00 | 87 | 1023.0 |
| 20260831034901 | 72 | 148 | 0.0 | 0.0 | 0.00 | 0.00 | 0.00 | 87 | 1023.2 |
| 20260831034801 | 72 | 149 | 0.0 | 0.0 | 0.00 | 0.00 | 0.00 | 87 | 1023.1 |
| 20260831034659 | 72 | 148 | 0.0 | 0.0 | 0.00 | 0.00 | 0.00 | 87 | 1023.1 |
| 20260831034556 | 72 | 146 | 0.0 | 0.0 | 0.00 | 0.00 | 0.00 | 87 | 1023.2 |
| 20260831034457 | 72 | 148 | 0.0 | 0.0 | 0.00 | 0.00 | 0.00 | 87 | 1023.2 |
| 20260831034354 | 72 | 146 | 0.0 | 0.0 | 0.00 | 0.00 | 0.00 | 87 | 1023.2 |
| 20260831034255 | 72 | 148 | 0.0 | 0.0 | 0.00 | 0.00 | 0.00 | 87 | 1023.2 |
| 20260831034153 | 72 | 146 | 0.0 | 0.0 | 0.00 | 0.00 | 0.00 | 87 | 1023.2 |
| 20260831034054 | 72 | 144 | 0.0 | 0.0 | 0.00 | 0.00 | 0.00 | 87 | 1023.2 |
| 20260831033950 | 72 | 148 | 0.0 | 0.0 | 0.00 | 0.00 | 0.00 | 87 | 1023.2 |
| 20260831033852 | 72 | 144 | 0.0 | 0.0 | 0.00 | 0.00 | 0.00 | 87 | 1023.3 |
| 20260831033748 | 72 | 145 | 0.0 | 0.0 | 0.00 | 0.00 | 0.00 | 87 | 1023.2 |
| 20260831033649 | 72 | 147 | 0.0 | 0.0 | 0.00 | 0.00 | 0.00 | 87 | 1023.1 |
| 20260831033546 | 72 | 148 | 0.0 | 0.0 | 0.00 | 0.00 | 0.00 | 87 | 1023.2 |
| 20260831033444 | 72 | 148 | 0.0 | 0.0 | 0.00 | 0.00 | 0.00 | 87 | 1023.1 |
| 20260831033342 | 72 | 149 | 0.0 | 0.0 | 0.00 | 0.00 | 0.00 | 87 | 1023.2 |
| 20260831033237 | 72 | 146 | 0.0 | 0.0 | 0.00 | 0.00 | 0.00 | 87 | 1023.2 |
| 20260831033137 | 72 | 146 | 0.0 | 0.0 | 0.00 | 0.00 | 0.00 | 87 | 1023.2 |
| 20260831033034 | 72 | 147 | 0.0 | 0.0 | 0.00 | 0.00 | 0.00 | 87 | 1023.3 |
| 20260831032934 | 72 | 147 | 0.0 | 0.0 | 0.00 | 0.00 | 0.00 | 87 | 1023.3 |
| 20260831032832 | 72 | 146 | 0.0 | 0.0 | 0.00 | 0.00 | 0.00 | 87 | 1023.3 |
| 20260831032733 | 72 | 147 | 0.0 | 0.0 | 0.00 | 0.00 | 0.00 | 87 | 1023.5 |
| 20260831032631 | 72 | 146 | 0.0 | 0.0 | 0.00 | 0.00 | 0.00 | 87 | 1023.5 |
| 20260831032526 | 72 | 146 | 0.0 | 0.0 | 0.00 | 0.00 | 0.00 | 87 | 1023.6 |
| 20260831032426 | 72 | 148 | 0.0 | 0.0 | 0.00 | 0.00 | 0.00 | 87 | 1023.6 |
| 20260831032326 | 72 | 148 | 0.0 | 0.0 | 0.00 | 0.00 | 0.00 | 87 | 1023.5 |
| 20260831032223 | 72 | 147 | 0.0 | 0.0 | 0.00 | 0.00 | 0.00 | 87 | 1023.5 |
| 20260831032121 | 72 | 146 | 0.0 | 0.0 | 0.00 | 0.00 | 0.00 | 87 | 1023.3 |
| 20260831032017 | 72 | 145 | 0.0 | 0.0 | 0.00 | 0.00 | 0.00 | 87 | 1023.5 |
| 20260831031914 | 72 | 148 | 0.0 | 0.0 | 0.00 | 0.00 | 0.00 | 87 | 1023.5 |
| 20260831031815 | 72 | 148 | 0.0 | 0.0 | 0.00 | 0.00 | 0.00 | 87 | 1023.3 |
| 20260831031714 | 72 | 146 | 0.0 | 0.0 | 0.00 | 0.00 | 0.00 | 87 | 1023.5 |
| 20260831031614 | 72 | 146 | 0.0 | 0.0 | 0.00 | 0.00 | 0.00 | 87 | 1023.5 |
| 20260831031512 | 72 | 145 | 0.0 | 0.0 | 0.00 | 0.00 | 0.00 | 87 | 1023.5 |
| 20260831031414 | 72 | 153 | 0.0 | 0.0 | 0.00 | 0.00 | 0.00 | 87 | 1023.5 |
| 20260831031310 | 72 | 158 | 0.0 | 0.0 | 0.00 | 0.00 | 0.00 | 87 | 1023.5 |
| 20260831031211 | 72 | 159 | 0.0 | 0.0 | 0.00 | 0.00 | 0.00 | 87 | 1023.5 |
| 20260831031108 | 72 | 163 | 0.0 | 0.0 | 0.00 | 0.00 | 0.00 | 87 | 1023.5 |
| 20260831031003 | 72 | 165 | 0.0 | 0.0 | 0.00 | 0.00 | 0.00 | 87 | 1023.5 |
| 20260831030903 | 72 | 165 | 0.0 | 0.0 | 0.00 | 0.00 | 0.00 | 87 | 1023.5 |
| 20260831030803 | 72 | 165 | 0.0 | 0.0 | 0.00 | 0.00 | 0.00 | 87 | 1023.3 |
| 20260831030700 | 72 | 165 | 0.0 | 0.0 | 0.00 | 0.00 | 0.00 | 87 | 1023.3 |
| 20260831030559 | 72 | 166 | 0.0 | 0.0 | 0.00 | 0.00 | 0.00 | 87 | 1023.5 |
| 20260831030500 | 72 | 166 | 0.0 | 0.0 | 0.00 | 0.00 | 0.00 | 87 | 1023.5 |
| 20260831030356 | 72 | 166 | 0.0 | 0.0 | 0.00 | 0.00 | 0.00 | 87 | 1023.3 |
| 20260831030258 | 72 | 166 | 0.0 | 0.0 | 0.00 | 0.00 | 0.00 | 87 | 1023.3 |
| 20260831030155 | 72 | 167 | 0.0 | 0.0 | 0.00 | 0.00 | 0.00 | 87 | 1023.5 |
| 20260831030053 | 72 | 190 | 0.0 | 0.0 | 0.00 | 0.00 | 0.00 | 87 | 1023.5 |
| 20260831025952 | 72 | 191 | 0.0 | 0.0 | 0.00 | 0.00 | 0.00 | 87 | 1023.5 |
| 20260831025850 | 72 | 191 | 0.0 | 0.0 | 0.00 | 0.00 | 0.00 | 87 | 1023.5 |
| 20260831025750 | 72 | 191 | 0.0 | 0.0 | 0.00 | 0.00 | 0.00 | 87 | 1023.6 |
| 20260831025649 | 72 | 191 | 0.0 | 0.0 | 0.00 | 0.00 | 0.00 | 87 | 1023.5 |
| 20260831025546 | 72 | 191 | 0.0 | 0.0 | 0.00 | 0.00 | 0.00 | 87 | 1023.5 |
| 20260831025440 | 72 | 191 | 0.0 | 0.0 | 0.00 | 0.00 | 0.00 | 87 | 1023.6 |
| 20260831025341 | 72 | 191 | 0.0 | 0.0 | 0.00 | 0.00 | 0.00 | 87 | 1023.5 |
| 20260831025242 | 72 | 191 | 0.0 | 0.0 | 0.00 | 0.00 | 0.00 | 87 | 1023.5 |
| 20260831025140 | 72 | 191 | 0.0 | 0.0 | 0.00 | 0.00 | 0.00 | 87 | 1023.5 |
| 20260831025037 | 72 | 191 | 0.0 | 0.0 | 0.00 | 0.00 | 0.00 | 86 | 1023.5 |
| 20260831024934 | 72 | 192 | 0.0 | 0.0 | 0.00 | 0.00 | 0.00 | 86 | 1023.5 |
| 20260831024834 | 72 | 191 | 0.0 | 0.0 | 0.00 | 0.00 | 0.00 | 86 | 1023.5 |
| 20260831024735 | 72 | 192 | 0.0 | 0.0 | 0.00 | 0.00 | 0.00 | 87 | 1023.5 |
| 20260831024633 | 72 | 192 | 0.0 | 0.0 | 0.00 | 0.00 | 0.00 | 86 | 1023.5 |
| 20260831024531 | 72 | 192 | 0.0 | 0.0 | 0.00 | 0.00 | 0.00 | 86 | 1023.6 |
| 20260831024430 | 72 | 191 | 0.0 | 0.0 | 0.00 | 0.00 | 0.00 | 86 | 1023.3 |
| 20260831024330 | 72 | 191 | 0.0 | 0.0 | 0.00 | 0.00 | 0.00 | 87 | 1023.5 |
| 20260831024229 | 72 | 191 | 0.0 | 0.0 | 0.00 | 0.00 | 0.00 | 87 | 1023.5 |
| 20260831024127 | 72 | 192 | 0.0 | 0.0 | 0.00 | 0.00 | 0.00 | 87 | 1023.5 |
| 20260831024025 | 72 | 193 | 0.0 | 0.0 | 0.00 | 0.00 | 0.00 | 87 | 1023.5 |
| 20260831023919 | 72 | 193 | 0.0 | 0.0 | 0.00 | 0.00 | 0.00 | 87 | 1023.6 |
| 20260831023818 | 73 | 194 | 0.0 | 0.0 | 0.00 | 0.00 | 0.00 | 87 | 1023.5 |
| 20260831023719 | 72 | 195 | 0.0 | 0.0 | 0.00 | 0.00 | 0.00 | 87 | 1023.5 |
| 20260831023616 | 72 | 195 | 0.0 | 0.0 | 0.00 | 0.00 | 0.00 | 86 | 1023.5 |
| 20260831023514 | 73 | 194 | 0.0 | 0.0 | 0.00 | 0.00 | 0.00 | 86 | 1023.6 |
| 20260831023412 | 72 | 194 | 0.0 | 0.0 | 0.00 | 0.00 | 0.00 | 86 | 1023.6 |
| 20260831023309 | 73 | 194 | 0.0 | 0.0 | 0.00 | 0.00 | 0.00 | 86 | 1023.6 |
| 20260831023208 | 73 | 194 | 0.0 | 0.0 | 0.00 | 0.00 | 0.00 | 86 | 1023.6 |
| 20260831023110 | 73 | 196 | 0.0 | 0.0 | 0.00 | 0.00 | 0.00 | 86 | 1023.6 |
| 20260831023008 | 73 | 197 | 0.0 | 0.0 | 0.00 | 0.00 | 0.00 | 86 | 1023.6 |
| 20260831022908 | 73 | 197 | 0.0 | 0.0 | 0.00 | 0.00 | 0.00 | 86 | 1023.6 |
| 20260831022807 | 73 | 197 | 0.0 | 0.0 | 0.00 | 0.00 | 0.00 | 87 | 1023.6 |
| 20260831022704 | 73 | 197 | 0.0 | 0.0 | 0.00 | 0.00 | 0.00 | 87 | 1023.6 |
| 20260831022606 | 73 | 202 | 0.0 | 0.0 | 0.00 | 0.00 | 0.00 | 87 | 1023.7 |
| 20260831022502 | 73 | 202 | 0.0 | 0.0 | 0.00 | 0.00 | 0.00 | 87 | 1023.7 |
| 20260831022354 | 73 | 202 | 0.0 | 0.0 | 0.00 | 0.00 | 0.00 | 86 | 1023.7 |
| 20260831022254 | 73 | 202 | 0.0 | 0.0 | 0.00 | 0.00 | 0.00 | 86 | 1023.7 |
| 20260831022152 | 73 | 202 | 0.0 | 0.0 | 0.00 | 0.00 | 0.00 | 86 | 1023.7 |
| 20260831022052 | 73 | 201 | 0.0 | 0.0 | 0.00 | 0.00 | 0.00 | 86 | 1023.6 |
| 20260831021953 | 73 | 201 | 0.0 | 0.0 | 0.00 | 0.00 | 0.00 | 86 | 1023.6 |
| 20260831021852 | 73 | 193 | 0.0 | 0.0 | 0.00 | 0.00 | 0.00 | 86 | 1023.7 |
| 20260831021750 | 73 | 193 | 0.0 | 0.0 | 0.00 | 0.00 | 0.00 | 86 | 1023.6 |
| 20260831021651 | 73 | 193 | 0.0 | 0.0 | 0.00 | 0.00 | 0.00 | 86 | 1023.6 |
| 20260831021549 | 73 | 193 | 0.0 | 0.0 | 0.00 | 0.00 | 0.00 | 86 | 1023.5 |
| 20260831021447 | 73 | 193 | 0.0 | 0.0 | 0.00 | 0.00 | 0.00 | 86 | 1023.6 |
| 20260831021347 | 73 | 193 | 0.0 | 0.0 | 0.00 | 0.00 | 0.00 | 86 | 1023.6 |
| 20260831021244 | 73 | 193 | 0.0 | 0.0 | 0.00 | 0.00 | 0.00 | 86 | 1023.5 |
| 20260831021144 | 73 | 194 | 0.0 | 0.0 | 0.00 | 0.00 | 0.00 | 86 | 1023.5 |
| 20260831021043 | 73 | 215 | 0.0 | 0.0 | 0.00 | 0.00 | 0.00 | 86 | 1023.5 |
| 20260831020940 | 73 | 187 | 0.0 | 0.0 | 0.00 | 0.00 | 0.00 | 87 | 1023.3 |
| 20260831020832 | 73 | 202 | 0.0 | 0.0 | 0.00 | 0.00 | 0.00 | 87 | 1023.3 |
| 20260831020731 | 73 | 202 | 0.0 | 0.0 | 0.00 | 0.00 | 0.00 | 86 | 1023.5 |
| 20260831020630 | 73 | 206 | 0.0 | 0.0 | 0.00 | 0.00 | 0.00 | 86 | 1023.5 |
| 20260831020531 | 73 | 201 | 0.0 | 0.0 | 0.00 | 0.00 | 0.00 | 87 | 1023.5 |
| 20260831020430 | 73 | 196 | 0.0 | 0.0 | 0.00 | 0.00 | 0.00 | 87 | 1023.5 |
| 20260831020332 | 73 | 200 | 0.0 | 0.0 | 0.00 | 0.00 | 0.00 | 87 | 1023.5 |
| 20260831020228 | 73 | 182 | 0.0 | 0.0 | 0.00 | 0.00 | 0.00 | 87 | 1023.3 |
| 20260831020129 | 73 | 182 | 0.0 | 0.0 | 0.00 | 0.00 | 0.00 | 87 | 1023.6 |
| 20260831020026 | 73 | 188 | 0.0 | 0.0 | 0.00 | 0.00 | 0.00 | 87 | 1023.5 |
| 20260831015925 | 73 | 188 | 0.0 | 0.0 | 0.00 | 0.00 | 0.00 | 87 | 1023.5 |
| 20260831015824 | 73 | 190 | 0.0 | 0.0 | 0.00 | 0.00 | 0.00 | 87 | 1023.5 |
| 20260831015723 | 73 | 190 | 0.0 | 0.0 | 0.00 | 0.00 | 0.00 | 87 | 1023.6 |
| 20260831015620 | 73 | 189 | 0.0 | 0.0 | 0.00 | 0.00 | 0.00 | 87 | 1023.5 |
| 20260831015521 | 73 | 180 | 0.0 | 0.0 | 0.00 | 0.00 | 0.00 | 87 | 1023.6 |
| 20260831015420 | 73 | 179 | 0.0 | 0.0 | 0.00 | 0.00 | 0.00 | 87 | 1023.6 |
| 20260831015320 | 73 | 179 | 0.0 | 0.0 | 0.00 | 0.00 | 0.00 | 87 | 1023.6 |
| 20260831015220 | 73 | 178 | 0.0 | 0.0 | 0.00 | 0.00 | 0.00 | 87 | 1023.6 |
| 20260831015119 | 73 | 176 | 0.0 | 0.0 | 0.00 | 0.00 | 0.00 | 87 | 1023.6 |
| 20260831015019 | 73 | 186 | 0.0 | 0.0 | 0.00 | 0.00 | 0.00 | 87 | 1023.7 |
| 20260831014918 | 73 | 186 | 0.0 | 0.0 | 0.00 | 0.00 | 0.00 | 87 | 1023.7 |
| 20260831014816 | 73 | 192 | 0.0 | 0.0 | 0.00 | 0.00 | 0.00 | 87 | 1023.6 |
| 20260831014715 | 73 | 192 | 0.0 | 0.0 | 0.00 | 0.00 | 0.00 | 87 | 1023.6 |
| 20260831014611 | 73 | 190 | 0.0 | 0.0 | 0.00 | 0.00 | 0.00 | 87 | 1023.6 |
| 20260831014513 | 73 | 194 | 0.0 | 0.0 | 0.00 | 0.00 | 0.00 | 87 | 1023.6 |
| 20260831014412 | 73 | 195 | 0.0 | 0.0 | 0.00 | 0.00 | 0.00 | 87 | 1023.6 |
| 20260831014313 | 73 | 197 | 0.0 | 0.0 | 0.00 | 0.00 | 0.00 | 87 | 1023.6 |
| 20260831014213 | 73 | 202 | 0.0 | 0.0 | 0.00 | 0.00 | 0.00 | 87 | 1023.6 |
| 20260831014113 | 73 | 171 | 0.0 | 0.0 | 0.00 | 0.00 | 0.00 | 87 | 1023.5 |
| 20260831014011 | 73 | 185 | 0.0 | 0.0 | 0.00 | 0.00 | 0.00 | 87 | 1023.6 |
| 20260831013910 | 73 | 192 | 0.0 | 0.0 | 0.00 | 0.00 | 0.00 | 87 | 1023.5 |
| 20260831013810 | 73 | 180 | 0.0 | 0.0 | 0.00 | 0.00 | 0.00 | 87 | 1023.6 |
| 20260831013710 | 73 | 180 | 0.0 | 0.0 | 0.00 | 0.00 | 0.00 | 87 | 1023.5 |
| 20260831013604 | 73 | 181 | 0.0 | 0.0 | 0.00 | 0.00 | 0.00 | 87 | 1023.6 |
| 20260831013505 | 73 | 182 | 0.0 | 0.0 | 0.00 | 0.00 | 0.00 | 87 | 1023.5 |
| 20260831013405 | 73 | 182 | 0.0 | 0.0 | 0.00 | 0.00 | 0.00 | 87 | 1023.5 |
| 20260831013305 | 73 | 167 | 0.0 | 0.0 | 0.00 | 0.00 | 0.00 | 87 | 1023.3 |
| 20260831013205 | 73 | 198 | 0.0 | 0.0 | 0.00 | 0.00 | 0.00 | 87 | 1023.3 |
| 20260831013104 | 73 | 198 | 0.0 | 0.0 | 0.00 | 0.00 | 0.00 | 87 | 1023.3 |
| 20260831013002 | 73 | 198 | 0.0 | 0.0 | 0.00 | 0.00 | 0.00 | 87 | 1023.3 |
| 20260831012902 | 73 | 198 | 0.0 | 0.0 | 0.00 | 0.00 | 0.00 | 87 | 1023.5 |
| 20260831012800 | 72 | 198 | 0.0 | 0.0 | 0.00 | 0.00 | 0.00 | 87 | 1023.3 |
| 20260831012658 | 72 | 201 | 0.0 | 0.0 | 0.00 | 0.00 | 0.00 | 87 | 1023.3 |
| 20260831012558 | 72 | 193 | 0.0 | 0.0 | 0.00 | 0.00 | 0.00 | 87 | 1023.3 |
| 20260831012457 | 72 | 184 | 0.0 | 0.0 | 0.00 | 0.00 | 0.00 | 87 | 1023.3 |
| 20260831012356 | 72 | 184 | 0.0 | 0.0 | 0.00 | 0.00 | 0.00 | 87 | 1023.2 |
| 20260831012257 | 72 | 184 | 0.0 | 0.0 | 0.00 | 0.00 | 0.00 | 87 | 1023.1 |
| 20260831012156 | 73 | 179 | 0.0 | 0.0 | 0.00 | 0.00 | 0.00 | 87 | 1023.1 |
| 20260831012058 | 72 | 175 | 0.0 | 0.0 | 0.00 | 0.00 | 0.00 | 87 | 1023.1 |
| 20260831011954 | 72 | 175 | 0.0 | 0.0 | 0.00 | 0.00 | 0.00 | 87 | 1023.1 |
| 20260831011854 | 72 | 176 | 0.0 | 0.0 | 0.00 | 0.00 | 0.00 | 87 | 1023.0 |
| 20260831011752 | 72 | 175 | 0.0 | 0.0 | 0.00 | 0.00 | 0.00 | 87 | 1023.0 |
| 20260831011652 | 72 | 175 | 0.0 | 0.0 | 0.00 | 0.00 | 0.00 | 87 | 1023.0 |
| 20260831011552 | 72 | 181 | 0.0 | 0.0 | 0.00 | 0.00 | 0.00 | 87 | 1023.0 |
| 20260831011452 | 72 | 184 | 0.0 | 0.0 | 0.00 | 0.00 | 0.00 | 87 | 1023.0 |
| 20260831011352 | 72 | 184 | 0.0 | 0.0 | 0.00 | 0.00 | 0.00 | 87 | 1023.0 |
| 20260831011250 | 72 | 184 | 0.0 | 0.0 | 0.00 | 0.00 | 0.00 | 87 | 1023.0 |
| 20260831011152 | 73 | 186 | 0.0 | 0.0 | 0.00 | 0.00 | 0.00 | 87 | 1022.9 |
| 20260831011049 | 73 | 186 | 0.0 | 0.0 | 0.00 | 0.00 | 0.00 | 87 | 1023.0 |
| 20260831010947 | 73 | 142 | 0.0 | 0.0 | 0.00 | 0.00 | 0.00 | 87 | 1023.0 |
| 20260831010846 | 73 | 180 | 0.0 | 0.0 | 0.00 | 0.00 | 0.00 | 87 | 1023.0 |
| 20260831010744 | 73 | 180 | 0.0 | 0.0 | 0.00 | 0.00 | 0.00 | 88 | 1023.0 |
| 20260831010644 | 73 | 179 | 0.0 | 0.0 | 0.00 | 0.00 | 0.00 | 87 | 1023.0 |
| 20260831010546 | 73 | 179 | 0.0 | 0.0 | 0.00 | 0.00 | 0.00 | 87 | 1023.0 |
| 20260831010444 | 73 | 179 | 0.0 | 0.0 | 0.00 | 0.00 | 0.00 | 87 | 1022.9 |
| 20260831010342 | 73 | 179 | 0.0 | 0.0 | 0.00 | 0.00 | 0.00 | 87 | 1023.0 |
| 20260831010243 | 73 | 180 | 0.0 | 0.0 | 0.00 | 0.00 | 0.00 | 87 | 1023.0 |
| 20260831010143 | 73 | 176 | 0.0 | 0.0 | 0.00 | 0.00 | 0.00 | 87 | 1022.9 |
| 20260831010041 | 73 | 176 | 0.0 | 0.0 | 0.00 | 0.00 | 0.00 | 87 | 1022.9 |
| 20260831005939 | 73 | 176 | 0.0 | 0.0 | 0.00 | 0.00 | 0.00 | 87 | 1022.9 |
| 20260831005839 | 73 | 175 | 0.0 | 0.0 | 0.00 | 0.00 | 0.00 | 87 | 1022.8 |
| 20260831005736 | 73 | 175 | 0.0 | 0.0 | 0.00 | 0.00 | 0.00 | 87 | 1022.8 |
| 20260831005638 | 73 | 175 | 0.0 | 0.0 | 0.00 | 0.00 | 0.00 | 87 | 1022.8 |
| 20260831005534 | 73 | 176 | 0.0 | 0.0 | 0.00 | 0.00 | 0.00 | 87 | 1022.7 |
| 20260831005433 | 73 | 176 | 0.0 | 0.0 | 0.00 | 0.00 | 0.00 | 87 | 1022.8 |
| 20260831005327 | 73 | 176 | 0.0 | 0.0 | 0.00 | 0.00 | 0.00 | 87 | 1022.7 |
| 20260831005226 | 73 | 175 | 0.0 | 0.0 | 0.00 | 0.00 | 0.00 | 87 | 1022.7 |
| 20260831005125 | 73 | 179 | 0.0 | 0.0 | 0.00 | 0.00 | 0.00 | 87 | 1022.8 |
| 20260831005025 | 73 | 189 | 0.0 | 0.0 | 0.00 | 0.00 | 0.00 | 87 | 1022.7 |
| 20260831004923 | 73 | 188 | 0.0 | 0.0 | 0.00 | 0.00 | 0.00 | 87 | 1022.7 |
| 20260831004823 | 73 | 188 | 0.0 | 0.0 | 0.00 | 0.00 | 0.00 | 87 | 1022.7 |
| 20260831004720 | 73 | 188 | 0.0 | 0.0 | 0.00 | 0.00 | 0.00 | 87 | 1022.7 |
| 20260831004621 | 73 | 188 | 0.0 | 0.0 | 0.00 | 0.00 | 0.00 | 87 | 1022.6 |
| 20260831004519 | 73 | 188 | 0.0 | 0.0 | 0.00 | 0.00 | 0.00 | 87 | 1022.7 |
| 20260831004416 | 73 | 188 | 0.0 | 0.0 | 0.00 | 0.00 | 0.00 | 87 | 1022.6 |
| 20260831004317 | 73 | 188 | 0.0 | 0.0 | 0.00 | 0.00 | 0.00 | 87 | 1022.6 |
| 20260831004214 | 73 | 188 | 0.0 | 0.0 | 0.00 | 0.00 | 0.00 | 87 | 1022.6 |
| 20260831004113 | 73 | 188 | 0.0 | 0.0 | 0.00 | 0.00 | 0.00 | 87 | 1022.6 |
| 20260831004013 | 73 | 188 | 0.0 | 0.0 | 0.00 | 0.00 | 0.00 | 87 | 1022.6 |
| 20260831003910 | 73 | 189 | 0.0 | 0.0 | 0.00 | 0.00 | 0.00 | 87 | 1022.7 |
| 20260831003805 | 73 | 189 | 0.0 | 0.0 | 0.00 | 0.00 | 0.00 | 87 | 1022.7 |
| 20260831003704 | 73 | 189 | 0.0 | 0.0 | 0.00 | 0.00 | 0.00 | 87 | 1022.6 |
| 20260831003604 | 73 | 198 | 0.0 | 0.0 | 0.00 | 0.00 | 0.00 | 87 | 1022.7 |
| 20260831003506 | 73 | 167 | 0.0 | 0.0 | 0.00 | 0.00 | 0.00 | 87 | 1022.7 |
| 20260831003404 | 73 | 173 | 0.0 | 0.0 | 0.00 | 0.00 | 0.00 | 87 | 1022.6 |
| 20260831003303 | 73 | 176 | 0.0 | 0.0 | 0.00 | 0.00 | 0.00 | 87 | 1022.6 |
| 20260831003205 | 73 | 178 | 0.0 | 0.0 | 0.00 | 0.00 | 0.00 | 87 | 1022.7 |
| 20260831003104 | 73 | 178 | 0.0 | 0.0 | 0.00 | 0.00 | 0.00 | 87 | 1022.6 |
| 20260831003005 | 73 | 178 | 0.0 | 0.0 | 0.00 | 0.00 | 0.00 | 87 | 1022.6 |
| 20260831002904 | 73 | 178 | 0.0 | 0.0 | 0.00 | 0.00 | 0.00 | 87 | 1022.6 |
| 20260831002804 | 73 | 178 | 0.0 | 0.0 | 0.00 | 0.00 | 0.00 | 87 | 1022.6 |
| 20260831002705 | 73 | 180 | 0.0 | 0.0 | 0.00 | 0.00 | 0.00 | 87 | 1022.6 |
| 20260831002604 | 73 | 195 | 0.0 | 0.0 | 0.00 | 0.00 | 0.00 | 87 | 1022.6 |
| 20260831002504 | 73 | 196 | 0.0 | 0.0 | 0.00 | 0.00 | 0.00 | 87 | 1022.6 |
| 20260831002403 | 73 | 198 | 0.0 | 0.0 | 0.00 | 0.00 | 0.00 | 87 | 1022.6 |
| 20260831002306 | 73 | 181 | 0.0 | 0.0 | 0.00 | 0.00 | 0.00 | 87 | 1022.6 |
| 20260831002203 | 74 | 174 | 0.0 | 0.0 | 0.00 | 0.00 | 0.00 | 87 | 1022.6 |
| 20260831002058 | 74 | 174 | 0.0 | 0.0 | 0.00 | 0.00 | 0.00 | 87 | 1022.6 |
| 20260831001957 | 74 | 174 | 0.0 | 0.0 | 0.00 | 0.00 | 0.00 | 87 | 1022.7 |
| 20260831001857 | 74 | 174 | 0.0 | 0.0 | 0.00 | 0.00 | 0.00 | 86 | 1022.6 |
| 20260831001757 | 74 | 174 | 0.0 | 0.0 | 0.00 | 0.00 | 0.00 | 86 | 1022.6 |
| 20260831001656 | 74 | 169 | 0.0 | 0.0 | 0.00 | 0.00 | 0.00 | 86 | 1022.5 |
| 20260831001557 | 74 | 180 | 0.0 | 0.0 | 0.00 | 0.00 | 0.00 | 87 | 1022.5 |
| 20260831001456 | 74 | 150 | 0.0 | 0.0 | 0.00 | 0.00 | 0.00 | 87 | 1022.6 |
| 20260831001356 | 74 | 207 | 0.0 | 0.0 | 0.00 | 0.00 | 0.00 | 87 | 1022.6 |
| 20260831001257 | 74 | 207 | 0.0 | 0.0 | 0.00 | 0.00 | 0.00 | 87 | 1022.6 |
| 20260831001157 | 74 | 206 | 0.0 | 0.0 | 0.00 | 0.00 | 0.00 | 86 | 1022.6 |
| 20260831001054 | 74 | 207 | 0.0 | 0.0 | 0.00 | 0.00 | 0.00 | 86 | 1022.6 |
| 20260831000952 | 74 | 194 | 0.0 | 0.0 | 0.00 | 0.00 | 0.00 | 86 | 1022.5 |
| 20260831000850 | 74 | 169 | 0.0 | 0.0 | 0.00 | 0.00 | 0.00 | 86 | 1022.5 |
| 20260831000750 | 74 | 169 | 0.0 | 0.0 | 0.00 | 0.00 | 0.00 | 86 | 1022.5 |
| 20260831000649 | 74 | 169 | 0.0 | 0.0 | 0.00 | 0.00 | 0.00 | 86 | 1022.5 |
| 20260831000549 | 74 | 167 | 0.0 | 0.0 | 0.00 | 0.00 | 0.00 | 86 | 1022.5 |
| 20260831000447 | 74 | 188 | 0.0 | 0.0 | 0.00 | 0.00 | 0.00 | 86 | 1022.5 |
| 20260831000347 | 74 | 188 | 0.0 | 0.0 | 0.00 | 0.00 | 0.00 | 86 | 1022.5 |
| 20260831000248 | 74 | 188 | 0.0 | 0.0 | 0.00 | 0.00 | 0.00 | 86 | 1022.7 |
| 20260831000147 | 74 | 188 | 0.0 | 0.0 | 0.00 | 0.00 | 0.00 | 86 | 1022.5 |
| 20260831000047 | 74 | 188 | 0.0 | 0.0 | 0.00 | 0.00 | 0.00 | 86 | 1022.5 |
| 20260830235945 | 74 | 189 | 0.0 | 0.0 | 0.00 | 0.00 | 0.00 | 86 | 1022.5 |
| 20260830235845 | 74 | 205 | 0.0 | 0.0 | 0.00 | 0.00 | 0.00 | 87 | 1022.5 |
| 20260830235742 | 74 | 202 | 0.0 | 0.0 | 0.00 | 0.00 | 0.00 | 87 | 1022.4 |
| 20260830235643 | 74 | 202 | 0.0 | 0.0 | 0.00 | 0.00 | 0.00 | 86 | 1022.5 |
| 20260830235541 | 74 | 202 | 0.0 | 0.0 | 0.00 | 0.00 | 0.00 | 86 | 1022.6 |
| 20260830235440 | 74 | 208 | 0.0 | 0.0 | 0.00 | 0.00 | 0.00 | 86 | 1022.5 |
| 20260830235337 | 74 | 216 | 0.0 | 0.0 | 0.00 | 0.00 | 0.00 | 86 | 1022.6 |
| 20260830235239 | 74 | 217 | 0.0 | 0.0 | 0.00 | 0.00 | 0.00 | 86 | 1022.6 |
| 20260830235139 | 74 | 217 | 0.0 | 0.0 | 0.00 | 0.00 | 0.00 | 86 | 1022.6 |
| 20260830235039 | 74 | 217 | 0.0 | 0.0 | 0.00 | 0.00 | 0.00 | 86 | 1022.5 |
| 20260830234937 | 74 | 217 | 0.0 | 0.0 | 0.00 | 0.00 | 0.00 | 86 | 1022.5 |
| 20260830234837 | 74 | 217 | 0.0 | 0.0 | 0.00 | 0.00 | 0.00 | 86 | 1022.5 |
| 20260830234734 | 75 | 217 | 0.0 | 0.0 | 0.00 | 0.00 | 0.00 | 86 | 1022.5 |
| 20260830234635 | 75 | 217 | 0.0 | 0.0 | 0.00 | 0.00 | 0.00 | 86 | 1022.6 |
| 20260830234533 | 75 | 217 | 0.0 | 0.0 | 0.00 | 0.00 | 0.00 | 86 | 1022.5 |
| 20260830234431 | 75 | 217 | 0.0 | 0.0 | 0.00 | 0.00 | 0.00 | 86 | 1022.5 |
| 20260830234331 | 75 | 217 | 0.0 | 0.0 | 0.00 | 0.00 | 0.00 | 86 | 1022.5 |